     2.10           OBSERVATION DATA    G (GPS)             RINEX VERSION / TYPE
teqc 2006Apr13 CORS-ADM Account 20060625 18:04:03UTC        PGM / RUN BY / DATE
Solaris 5.9|UltraSparc IIi|cc -xarch=v9 SC5.5|=+-|*Sparc    COMMENT
teqc 2006Apr13 CORS/NGS/NOAA 20060625 18:04:02UTC           COMMENT
BIT 2 OF LLI FLAGS DATA COLLECTED UNDER A/S CONDITION       COMMENT
jama                                                        MARKER NAME
Frank E Marion NOAA, National Geodetic Survey               OBSERVER / AGENCY
ZR220022405 ASHTECH UZ-12 CK00                              REC # / TYPE / VERS
114 AOAD/M_TA_NGS SNOW                                      ANT # / TYPE
  1388060.4401 -5909150.8065  1951964.1158                  APPROX POSITION XYZ
        0.0000        0.0000        0.0000                  ANTENNA: DELTA H/E/N
     1     1                                                WAVELENGTH FACT L1/2
     7    C1    L1    L2    P1    P2    D1    D2            # / TYPES OF OBSERV
    30.0000                                                 INTERVAL
SNR is mapped to RINEX snr flag value [0-9]                 COMMENT
L1 & L2: min(max(int(snr_dBHz/6), 0), 9)                    COMMENT
pseudorange smoothing corrections not applied               COMMENT
Forced Modulo Decimation to 30 seconds                      COMMENT
  2006     6    25    17     0    0.0000000     GPS         TIME OF FIRST OBS
                                                            END OF HEADER
 06  6 25 17  0  0.0000000  0  8G18G 9G14G15G22G30G21G 5
  21056885.2474  -24267193.44148 -18895233.62948  21056885.0254   21056885.9974
       621.1574        484.0204
  22352977.7834  -16545201.83547 -12878821.96647  22352977.7464   22352981.1234
     -3183.5094      -2480.6784
  22311316.8564  -12714700.12047  -9858815.11447  22311316.4564   22311317.6174
       389.0274        303.1444
  20019111.9664  -26208874.76748 -20372151.64648  20019111.4154   20019114.1504
      -690.7874       -538.2844
  22019081.7574  -11396381.73548  -8871724.72047  22019081.7834   22019081.8704
      2038.3314       1588.3114
  23068283.4004  -12689752.73247  -9883110.29346  23068282.9164   23068288.1554
      2326.6574       1812.9804
  20777775.2654  -25394872.18448 -19743779.31547  20777775.0174   20777776.2344
     -2307.5494      -1798.0934
  22717699.1534  -13480919.81647 -10502257.99946  22717699.2684   22717701.9254
       976.4464        760.8684
 06  6 25 17  0 30.0000000  0  8G18G 9G14G15G22G30G21G 5
  21053364.0314  -24285696.58848 -18909651.68948  21053363.7784   21053364.9084
       613.3874        477.9674
  22371181.2654  -16449546.01647 -12804284.99647  22371182.0364   22371183.1524
     -3192.4664      -2487.6214
  22309107.3824  -12726306.90347  -9867859.35647  22309107.6224   22309108.0884
       385.8974        300.6954
  20023114.4134  -26187840.87348 -20355761.63048  20023114.0014   20023116.9244
      -710.3694       -553.5324
  22007450.3434  -11457508.21648  -8919355.73847  22007450.1224   22007450.1414
      2037.8624       1587.9474
  23055010.0254  -12759511.98947  -9937468.13946  23055008.9144   23055012.7204
      2324.9084       1811.6174
  20790992.5164  -25325412.21148 -19689654.71547  20790992.5714   20790994.6994
     -2322.0864      -1809.4074
  22712160.0144  -13510025.55147 -10524937.78846  22712159.0014   22712163.4054
       964.9104        751.8834
 06  6 25 17  1  0.0000000  0  8G18G 9G14G15G22G30G21G 5
  21049891.9034  -24303944.54948 -18923870.90948  21049891.7334   21049893.0694
       604.6424        471.1514
  22389439.4244  -16353596.61047 -12729519.28447  22389439.4524   22389440.4534
     -3202.6394      -2495.5484
  22306920.8074  -12737798.12447  -9876813.55647  22306921.5284   22306922.8694
       381.7034        297.4344
  20027233.7454  -26166194.21248 -20338894.13848  20027233.0524   20027236.2614
      -731.1794       -569.7534
  21995825.8984  -11518597.73748  -8966957.97247  21995824.2414   21995824.7914
      2036.4384       1586.8424
  23041748.9074  -12829195.65947  -9991767.04447  23041748.3794   23041753.0584
      2322.0304       1809.3734
  20804297.6714  -25255494.52048 -19635173.44447  20804297.4964   20804299.6434
     -2337.5834      -1821.4964
  22706690.5434  -13538767.62947 -10547334.19046  22706689.4754   22706693.5564
       952.6244        742.3074
 06  6 25 17  1 30.0000000  0  8G18G 9G14G15G22G30G21G 5
  21046468.2704  -24321933.27048 -18937888.12148  21046467.9724   21046469.2694
       594.7534        463.4544
  22407752.9984  -16257354.88947 -12654525.78447  22407753.1174   22407755.8384
     -3213.3034      -2503.8774
  22304756.5414  -12749173.64847  -9885677.59247  22304755.2444   22304757.4224
       376.5374        293.3804
  20031469.5604  -26143934.00348 -20321548.55648  20031469.0644   20031472.2024
      -752.9004       -586.6694
  21984207.6044  -11579646.75348  -9014528.62647  21984207.7714   21984208.4574
      2033.6674       1584.6774
  23028503.6254  -12898798.74747 -10046003.20246  23028504.1554   23028506.1214
      2318.0194       1806.2264
  20817689.8094  -25185119.66348 -19580335.94847  20817689.6924   20817691.9044
     -2353.9674      -1834.2514
  22701291.1384  -13567141.62747 -10569443.79146  22701290.3884   22701293.4324
       939.0424        731.7354
 06  6 25 17  2  0.0000000  0  8G18G 9G14G15G22G30G21G 5
  21043094.5724  -24339662.87948 -18951703.42948  21043094.7594   21043095.9834
       585.7774        456.4474
  22426122.2244  -16160825.75647 -12579308.32047  22426122.3034   22426124.9704
     -3223.1894      -2511.5954
  22302612.7064  -12760437.05447  -9894454.26747  22302612.1794   22302614.7444
       372.7134        290.4194
  20035821.9774  -26121063.46048 -20303727.38748  20035821.5274   20035824.4484
      -773.3614       -602.6194
  21972598.7884  -11640655.97748  -9062068.27747  21972598.3634   21972598.3244
      2032.1474       1583.4964
  23015274.1764  -12968320.14447 -10100175.66546  23015273.7094   23015278.2884
      2315.1924       1804.0214
  20831167.4974  -25114292.85048 -19525146.27347  20831167.5534   20831168.8114
     -2369.3814      -1846.2634
  22695962.1134  -13595147.50647 -10591266.53346  22695961.2954   22695964.9244
       926.3984        721.8664
 06  6 25 17  2 30.0000000  0  8G18G 9G14G15G22G30G21G 5
  21039770.4364  -24357132.34248 -18965316.03148  21039770.1924   21039771.5384
       578.5054        450.7844
  22444544.8914  -16064013.56647 -12503870.30147  22444544.5484   22444546.7484
     -3231.1614      -2517.7814
  22300489.9834  -12771590.86947  -9903145.55247  22300490.8394   22300492.3374
       370.6654        288.8354
  20040289.3104  -26097584.71148 -20285432.28948  20040289.1504   20040292.2434
      -792.1514       -617.2714
  21960996.0414  -11701624.33348  -9109576.08447  21960996.1604   21960996.0714
      2032.1154       1583.4684
  23002060.7744  -13037758.25647 -10154283.27446  23002061.3714   23002063.3804
      2313.7214       1802.8894
  20844730.4344  -25043017.51648 -19469607.09747  20844730.4324   20844732.8544
     -2382.6064      -1856.5704
  22690701.9714  -13622784.00647 -10612801.45246  22690701.9384   22690705.5444
       915.3754        713.2684
 06  6 25 17  3  0.0000000  0  8G18G 9G14G15G22G30G21G 5
  21036496.7554  -24374334.52248 -18978720.35348  21036496.3114   21036498.2704
       568.8484        443.2574
  22463023.4834  -15966916.29947 -12428210.14947  22463021.8294   22463025.5944
     -3241.3424      -2525.7074
  22298389.9424  -12782630.96047  -9911748.21647  22298389.5424   22298390.1724
       366.0994        285.2844
  20044874.0434  -26073493.32948 -20266659.82048  20044873.4334   20044876.6974
      -813.3954       -633.8224
  21949403.0014  -11762544.57848  -9157046.40647  21949402.9584   21949403.5914
      2029.7044       1581.5854
  22988863.8204  -13107105.14847 -10208319.76146  22988863.2144   22988867.7444
      2309.6834       1799.7374
  20858379.8474  -24971291.41148 -19413716.67947  20858379.9964   20858381.7894
     -2398.6624      -1869.0854
  22685515.4814  -13650043.33347 -10634042.48346  22685515.5354   22685517.5864
       902.0594        702.9084
 06  6 25 17  3 30.0000000  0  9G 1G18G 9G14G15G22G30G21G 5
  24718014.3414   -1906978.11046  -1483231.21745  24718009.9894   24718021.9094
      1345.5254       1048.4624
  21033267.5854  -24391305.19748 -18991944.28848  21033267.0364   21033268.7104
       559.7984        436.2014
  22481545.4564  -15869574.77147 -12352359.65547  22481545.2984   22481547.4264
     -3250.7084      -2533.0384
  22296302.2334  -12793596.70947  -9920292.95147  22296301.3334   22296302.9014
       362.2364        282.2624
  20049567.7424  -26048828.43348 -20247440.45048  20049567.0504   20049570.5474
      -833.7694       -649.6894
  21937813.2214  -11823452.96848  -9204507.48747  21937812.7904   21937813.1254
      2028.0094       1580.2774
  22975677.5494  -13176395.15747 -10262311.92246  22975678.2134   22975681.7854
      2306.6024       1797.3394
  20872107.4394  -24899154.83748 -19357506.41247  20872107.1854   20872109.3764
     -2413.2894      -1880.4894
  22680392.9454  -13676961.16347 -10655017.39546  22680392.3364   22680395.5594
       889.4024        693.0354
 06  6 25 17  4  0.0000000  0  9G 1G18G 9G14G15G22G30G21G 5
  24710346.3704   -1947274.91146  -1514631.31245  24710346.0314   24710354.2524
      1340.4564       1044.5024
  21030095.2154  -24407975.74748 -19004934.35348  21030094.9174   21030096.4304
       551.4944        429.7374
  22500128.2204  -15771925.33147 -12276269.22247  22500127.5304   22500129.8864
     -3259.1024      -2539.5614
  22294241.9424  -12804423.12847  -9928729.11847  22294241.6014   22294244.0544
       359.4014        280.0804
  20054382.8824  -26023524.72448 -20227723.30748  20054382.4044   20054385.5264
      -853.2004       -664.8344
  21926238.4974  -11884281.23648  -9251906.13947  21926238.4234   21926236.8564
      2027.1534       1579.5994
  22962517.3814  -13245558.72947 -10316205.60147  22962516.7944   22962519.5894
      2304.2214       1795.4864
  20885924.7304  -24826544.27448 -19300926.80347  20885924.5414   20885926.2114
     -2427.3534      -1891.4474
  22675349.6084  -13703468.63147 -10675672.56046  22675348.1554   22675351.2814
       877.6424        683.8844
 06  6 25 17  4 30.0000000  0  9G 1G18G 9G14G15G22G30G21G 5
  24702704.6884   -1987420.92246  -1545913.84145  24702705.5104   24702714.3014
      1335.3774       1040.5614
  21026974.2084  -24424376.86448 -19017714.46848  21026973.9864   21026975.3144
       541.5754        422.0104
  22518761.9004  -15674003.53447 -12199966.57947  22518762.8354   22518764.1214
     -3269.3294      -2547.5274
  22292202.9784  -12815144.05247  -9937083.08047  22292203.0264   22292202.9594
       354.9134        276.5494
  20059313.3084  -25997615.60348 -20207534.41848  20059312.6304   20059316.1974
      -874.3064       -681.2684
  21914671.3684  -11945059.96048  -9299266.17747  21914672.2194   21914672.1784
      2024.4604       1577.5164
  22949374.4064  -13314625.54547 -10370023.87446  22949375.9914   22949376.7524
      2299.8614       1792.0984
  20899825.3374  -24753494.60348 -19244005.03347  20899824.9974   20899826.9844
     -2442.7184      -1903.4054
  22670376.9514  -13729595.81747 -10696031.39746  22670377.1954   22670379.5924
       863.8504        673.1434
 06  6 25 17  5  0.0000000  0  9G 1G18G 9G14G15G22G30G21G 5
  24695097.3484   -2027415.63046  -1577078.48845  24695095.5854   24695104.0774
      1331.1954       1037.2984
  21023905.0984  -24440505.06548 -19030281.92948  21023905.3654   21023905.7844
       533.9014        416.0294
  22537447.1344  -15575811.30447 -12123453.22947  22537447.5744   22537448.8674
     -3276.7644      -2553.3324
  22290182.1494  -12825759.55147  -9945354.89847  22290181.6524   22290183.5734
       353.0204        275.0874
  20064358.9804  -25971100.99648 -20186873.71948  20064358.6364   20064361.9094
      -893.0754       -695.9084
  21903116.5574  -12005785.79648  -9346585.00847  21903116.0034   21903116.4274
      2024.0934       1577.2164
  22936249.4414  -13383591.03147 -10423763.17346  22936249.2774   22936253.6114
      2297.9124       1790.5704
  20913809.4664  -24680007.34048 -19186742.28547  20913809.4224   20913811.3844
     -2455.9484      -1913.7254
  22665479.1174  -13755339.36947 -10716091.28946  22665478.6084   22665483.3104
       852.3464        664.1644
 06  6 25 17  5 30.0000000  0  9G 1G18G 9G14G15G22G30G21G 5
  24687515.0994   -2067264.08146  -1608129.17245  24687513.8854   24687518.3134
      1326.2304       1033.4394
  21020887.5814  -24456362.10448 -19042638.08848  21020887.4134   21020888.7454
       524.3474        408.5744
  22556182.9434  -15477355.87347 -12046734.74647  22556183.5254   22556184.3904
     -3285.7784      -2560.3704
  22288181.5064  -12836274.86847  -9953548.65747  22288180.1484   22288181.0884
       349.0784        271.9994
  20069518.5584  -25943986.01948 -20165745.20348  20069517.5924   20069521.3284
      -913.4674       -711.7904
  21891570.4154  -12066461.01748  -9393864.41147  21891570.1044   21891569.6124
      2021.8524       1575.4614
  22923146.0344  -13452456.36847 -10477424.44647  22923146.6274   22923149.9154
      2294.3034       1787.7604
  20927876.1924  -24606089.04048 -19129143.66647  20927875.5084   20927877.7314
     -2470.7924      -1925.2864
  22660652.5144  -13780700.76047 -10735853.40447  22660652.4864   22660655.5174
       839.3254        654.0204
 06  6 25 17  6  0.0000000  0  9G 1G18G 9G14G15G22G30G21G 5
  24679959.9174   -2106965.19746  -1639065.08145  24679958.8614   24679963.6794
      1321.5924       1029.8104
  21017922.8144  -24471944.32848 -19054780.11348  21017922.5054   21017923.6634
       515.4984        401.6874
  22574968.8194  -15378638.21747 -11969811.95447  22574968.3244   22574971.5684
     -3294.2184      -2566.9234
  22286199.3304  -12846689.93647  -9961664.30847  22286199.4024   22286201.3074
       346.4204        269.9604
  20074792.8024  -25916270.02848 -20144148.36148  20074792.6224   20074795.8604
      -933.1964       -727.1624
  21880034.2424  -12127081.81348  -9441101.39247  21880035.0214   21880034.2054
      2020.3984       1574.3344
  22910061.8264  -13521216.42847 -10531003.67147  22910061.9254   22910065.4144
      2290.7884       1785.0544
  20942024.1874  -24531740.83448 -19071210.04947  20942023.6674   20942026.5124
     -2484.8864      -1936.2684
  22655899.7194  -13805675.81847 -10755314.47347  22655900.2654   22655902.9354
       826.5254        644.0554
 06  6 25 17  6 30.0000000  0  9G 1G18G 9G14G15G22G30G21G 5
  24672431.2074   -2146518.76346  -1669885.99745  24672431.8144   24672437.8714
      1316.3354       1025.6994
  21015010.2834  -24487248.00148 -19066705.06848  21015010.1924   21015011.3024
       505.6844        394.0414
  22593802.5344  -15279660.08547 -11892686.20247  22593803.2714   22593805.8154
     -3303.5924      -2574.2394
  22284236.2364  -12857004.27847  -9969701.46247  22284236.9604   22284237.6864
       342.4064        266.8034
  20080181.0694  -25887952.95348 -20122083.14448  20080180.8454   20080184.2124
      -953.7134       -743.1584
  21868509.5724  -12187644.92248  -9488293.42147  21868509.3624   21868510.0644
      2017.9434       1572.4244
  22896996.3924  -13589866.62547 -10584497.31446  22896996.3384   22896998.3784
      2286.6654       1781.8164
  20956253.6384  -24456963.80748 -19012942.29147  20956252.7824   20956254.7584
     -2499.5304      -1947.6914
  22651221.0644  -13830260.99747 -10774471.74447  22651220.2744   22651225.4244
       813.1134        633.5904
 06  6 25 17  7  0.0000000  0  9G 1G18G 9G14G15G22G30G21G 5
  24664932.5654   -2185924.17146  -1700591.45945  24664930.5694   24664937.2124
      1309.9124       1020.7204
  21012151.8884  -24502269.81248 -19078410.39748  21012151.8344   21012152.8954
       495.5114        386.1164
  22612687.4684  -15180423.02547 -11815358.66446  22612687.5494   22612690.7214
     -3312.6794      -2581.3124
  22282293.1554  -12867217.67247  -9977659.96147  22282292.9774   22282294.1464
       338.3584        263.6694
  20085684.7254  -25859034.64248 -20099549.43348  20085684.2274   20085687.2574
      -974.4374       -759.2974
  21856996.9234  -12248146.75848  -9535437.71047  21856996.0864   21856996.3824
      2015.1904       1570.2774
  22883954.6714  -13658402.71847 -10637902.02446  22883953.2704   22883958.7034
      2282.1164       1778.2704
  20970564.3354  -24381759.02248 -18954341.20947  20970564.4234   20970566.2924
     -2514.4614      -1959.3214
  22646616.8974  -13854452.44947 -10793322.21446  22646616.4424   22646620.3544
       799.2644        622.7944
 06  6 25 17  7 30.0000000  0  9G 1G18G 9G14G15G22G30G21G 5
  24657463.0844   -2225185.70346  -1731184.79045  24657459.4104   24657468.1684
      1305.9144       1017.5894
  21009347.0894  -24517011.33248 -19089897.31748  21009346.2924   21009347.6934
       485.9944        378.6924
  22631620.0364  -15080933.16747 -11737834.13747  22631620.1584   22631624.6344
     -3321.1304      -2587.8774
  22280367.6744  -12877334.78147  -9985543.42747  22280368.7574   22280369.2904
       335.1044        261.1404
  20091300.9124  -25829519.61248 -20076550.74448  20091300.5154   20091303.6174
      -994.4414       -774.8854
  21845495.2394  -12308588.75648  -9582535.37747  21845495.0934   21845495.1894
      2013.1694       1568.6984
  22870935.4024  -13726825.02347 -10691218.08147  22870935.3344   22870939.0694
      2278.2644       1775.2774
  20984956.1704  -24306132.67048 -18895411.63847  20984955.7494   20984957.7304
     -2528.3944      -1970.1714
  22642088.0154  -13878251.22847 -10811866.70346  22642087.8254   22642090.8104
       786.0484        612.5054
 06  6 25 17  8  0.0000000  0  9G 1G18G 9G14G15G22G30G21G 5
  24650020.0054   -2264306.52446  -1761668.48745  24650014.9854   24650023.2714
      1299.7244       1012.7574
  21006594.7914  -24531472.50748 -19101165.78448  21006594.2934   21006596.0084
       475.6504        370.6364
  22650599.3044  -14981196.04347 -11660116.97246  22650598.0634   22650600.9694
     -3330.2094      -2594.9514
  22278460.3164  -12887358.99847  -9993354.50447  22278461.1674   22278461.8624
       330.9904        257.9354
  20097030.4544  -25799411.15348 -20053089.64048  20097030.0064   20097033.1294
     -1015.0184       -790.9254
  21834004.1994  -12368971.23648  -9629586.66147  21834005.0584   21834004.3364
      2010.0934       1566.2904
  22857938.1364  -13795132.14347 -10744444.36647  22857937.7294   22857938.7724
      2273.5214       1771.5514
  20999426.4134  -24230089.80848 -18836157.50847  20999426.0074   20999428.7274
     -2543.2964      -1981.7794
  22637634.3064  -13901657.27747 -10830105.16946  22637632.4544   22637638.6614
       771.9144        601.4964
 06  6 25 17  8 30.0000000  0  9G 1G18G 9G14G15G22G30G21G 5
  24642600.1204   -2303280.87946  -1792038.05446  24642601.0504   24642606.9744
      1297.1774       1010.7854
  21003898.0774  -24545643.99048 -19112208.52048  21003897.8524   21003899.2664
       467.8284        364.5424
  22669626.3144  -14881207.52647 -11582203.87146  22669626.5934   22669629.4204
     -3336.8894      -2600.1664
  22276571.4464  -12897285.07247 -10001089.12147  22276572.0744   22276574.9304
       329.4854        256.7554
  20102873.7594  -25768703.90248 -20029161.95548  20102873.2084   20102876.9344
     -1033.2694       -805.1424
  21822527.0264  -12429285.30348  -9676584.63847  21822526.5514   21822526.9034
      2009.5854       1565.9224
  22844961.4684  -13863314.39747 -10797573.36746  22844962.7624   22844966.1504
      2270.8834       1769.5134
  21013977.0254  -24153626.79448 -18776575.99447  21013976.6844   21013978.4014
     -2555.4384      -1991.2564
  22633257.3084  -13924661.51947 -10848030.55746  22633255.6484   22633259.7234
       760.4354        592.5514
 06  6 25 17  9  0.0000000  0  9G 1G18G 9G14G15G22G30G21G 5
  24635211.5974   -2342116.99846  -1822299.93146  24635209.7154   24635217.1794
      1293.0984       1007.6124
  21001255.2774  -24559531.34348 -19123029.84848  21001255.1714   21001256.2884
       459.2334        357.8464
  22688699.2224  -14780978.09247 -11504103.08246  22688698.6284   22688701.2974
     -3343.7414      -2605.5184
  22274699.8154  -12907122.00247 -10008754.26947  22274699.2204   22274700.7254
       327.2554        255.0354
  20108829.8134  -25737406.49948 -20004774.40348  20108829.1944   20108832.6114
     -1052.0704       -819.7894
  21811061.6164  -12489536.56248  -9723533.67847  21811061.6294   21811061.8624
      2008.4764       1565.0364
  22832009.4084  -13931376.50947 -10850608.76147  22832009.9674   22832011.6784
      2267.7164       1767.0474
  21028605.6744  -24076753.64848 -18716674.89347  21028604.9184   21028607.0694
     -2568.1524      -2001.1534
  22628955.1024  -13947269.25847 -10865646.96546  22628954.1144   22628957.0394
       747.9374        582.7964
 06  6 25 17  9 30.0000000  0  9G 1G18G 9G14G15G22G30G21G 5
  24627848.4214   -2380808.17246  -1852448.82045  24627845.5444   24627852.2054
      1288.1374       1003.7374
  20998668.6784  -24573125.21348 -19133622.49448  20998668.4944   20998669.3454
       449.1464        349.9914
  22707819.2264  -14680502.92147 -11425810.79246  22707818.6294   22707822.6674
     -3352.3354      -2612.1784
  22272846.0294  -12916863.07547 -10016344.72047  22272845.5694   22272848.4244
       324.1494        252.6064
  20114898.9944  -25705512.49048 -19979921.96548  20114898.2294   20114901.8124
     -1072.2044       -835.4734
  21799610.9284  -12549715.04248  -9770426.00447  21799610.3504   21799610.0214
      2005.5934       1562.8164
  22819084.1644  -13999307.04247 -10903541.62547  22819083.9664   22819086.5234
      2263.0484       1763.4194
  21043312.8214  -23999464.86948 -18656449.92047  21043312.8624   21043314.6854
     -2582.3604      -2012.2224
  22624731.1374  -13969470.30047 -10882946.48646  22624731.1524   22624732.6124
       733.9734        571.9234
 06  6 25 17 10  0.0000000  0  9G 1G18G 9G14G15G22G30G21G 5
  24620510.4644   -2419363.92146  -1882492.23145  24620508.7514   24620517.6714
      1283.1024        999.8194
  20996136.4174  -24586432.07148 -19143991.49148  20996136.6564   20996137.3204
       438.9154        342.0074
  22726982.7484  -14579793.53947 -11347335.99346  22726983.0304   22726985.8824
     -3360.4474      -2618.5174
  22271008.4264  -12926518.13947 -10023868.15447  22271007.4404   22271010.9694
       320.5414        249.7674
  20121079.9804  -25673032.05148 -19954612.55948  20121079.2664   20121082.4334
     -1092.2244       -851.0894
  21788171.0104  -12609827.38748  -9817266.79647  21788171.0964   21788170.8494
      2002.7544       1560.5774
  22806179.0214  -14067111.58247 -10956376.30347  22806180.4544   22806183.3384
      2258.2044       1759.6074
  21058097.7694  -23921771.94548 -18595910.03047  21058097.2834   21058099.3744
     -2596.2894      -2023.0714
  22620581.7304  -13991271.25647 -10899934.23946  22620581.2054   22620585.2944
       720.3084        561.2744
 06  6 25 17 10 30.0000000  0  9G 1G18G 9G14G15G22G30G21G 5
  24613200.2944   -2457778.63046  -1912425.71445  24613201.8284   24613206.5734
      1277.8684        995.7504
  20993660.4574  -24599443.24348 -19154130.09248  20993660.4474   20993661.6594
       428.7754        334.1124
  22746193.7744  -14478846.70847 -11268676.17346  22746193.3934   22746195.1084
     -3368.6934      -2624.9674
  22269188.9564  -12936081.79447 -10031320.35147  22269188.5594   22269190.4994
       317.4244        247.3504
  20127373.2254  -25639959.88648 -19928842.08048  20127372.6854   20127375.9454
     -1112.1404       -866.6014
  21776745.4394  -12669865.09848  -9864049.42447  21776745.9504   21776746.2694
      2000.1904       1558.6024
  22793302.8344  -14134780.70947 -11009105.46847  22793302.7664   22793307.3354
      2253.4564       1755.9584
  21072959.3044  -23843671.22848 -18535052.37747  21072958.7624   21072961.3154
     -2609.9134      -2033.6914
  22616511.8014  -14012663.22347 -10916603.29147  22616511.9254   22616513.6554
       706.1934        550.2654
 06  6 25 17 11  0.0000000  0  9G 1G18G 9G14G15G22G30G21G 5
  24605917.6034   -2496055.40246  -1942251.75545  24605918.4484   24605924.7454
      1274.0394        992.7534
  20991240.8064  -24612158.68148 -19164038.24948  20991240.8794   20991242.0274
       419.1854        326.6304
  22765446.4604  -14377667.29747 -11189835.13546  22765447.6414   22765449.1044
     -3376.1094      -2630.7434
  22267385.8524  -12945557.88547 -10038704.32247  22267384.7134   22267387.1454
       314.7654        245.2974
  20133778.6304  -25606299.46548 -19902613.22248  20133778.0824   20133781.5584
     -1131.4454       -881.6434
  21765336.4054  -12729828.02348  -9910773.79747  21765336.1954   21765335.6814
      1997.8054       1556.7344
  22780452.4784  -14202313.19947 -11061728.15747  22780451.7574   22780455.8624
      2249.1104       1752.5374
  21087898.4414  -23765167.65348 -18473880.81747  21087897.9774   21087900.3824
     -2623.1344      -2043.9984
  22612518.4704  -14033646.10247 -10932953.59347  22612518.0944   22612522.9344
       692.8924        539.9084
 06  6 25 17 11 30.0000000  0  9G 1G18G 9G14G15G22G30G21G 5
  24598659.1814   -2534199.05246  -1971974.01146  24598659.9214   24598664.3484
      1270.0054        989.6074
  20988877.0234  -24624580.12048 -19173717.31448  20988877.2474   20988878.3844
       409.1924        318.8514
  22784743.3144  -14276262.03847 -11110818.09046  22784743.5894   22784746.3254
     -3383.7594      -2636.6904
  22265597.8684  -12954950.88247 -10046023.54247  22265597.7784   22265600.2274
       311.9124        243.0344
  20140295.0064  -25572056.11848 -19875930.13448  20140294.4344   20140297.8274
     -1151.1154       -896.9734
  21753939.2984  -12789718.08648  -9957441.37847  21753939.9274   21753938.8254
      1995.0894       1554.6094
  22767627.8584  -14269709.48247 -11114244.73547  22767628.5034   22767630.5444
      2244.2264       1748.7284
  21102912.1834  -23686267.80748 -18412400.47347  21102912.7724   21102914.0794
     -2636.5374      -2054.4294
  22608602.7704  -14054221.60447 -10948986.45247  22608602.1714   22608607.3484
       678.9574        529.0834
 06  6 25 17 12  0.0000000  0  9G 1G18G 9G14G15G22G30G21G 5
  24591425.4724   -2572204.17346  -2001588.33946  24591426.9004   24591431.6154
      1264.5224        985.3384
  20986570.9104  -24636699.30748 -19183160.85648  20986571.1074   20986572.3224
       398.7024        310.6844
  22804084.9074  -14174627.66047 -11031622.50246  22804084.3924   22804087.3274
     -3391.8864      -2643.0154
  22263827.1464  -12964255.85847 -10053274.18347  22263827.1534   22263829.2294
       308.4844        240.3664
  20146923.2674  -25537225.17048 -19848789.17148  20146922.6934   20146925.7304
     -1171.1694       -912.5944
  21742557.9024  -12849527.02248 -10004045.75147  21742557.7814   21742557.7564
      1991.9834       1552.1954
  22754829.5794  -14336960.30547 -11166647.95547  22754831.3604   22754834.0464
      2239.0264       1744.6864
  21118002.4734  -23606968.03948 -18350608.49947  21118002.6144   21118004.5014
     -2650.2424      -2065.1304
  22604766.5554  -14074381.12247 -10964695.15447  22604766.2864   22604770.5964
       664.7674        518.0084
 06  6 25 17 12 30.0000000  0  9G 1G18G 9G14G15G22G30G21G 5
  24584216.5414   -2610079.10446  -2031101.18345  24584217.7194   24584225.3524
      1260.7084        982.3784
  20984322.0524  -24648521.44448 -19192372.92948  20984321.3554   20984322.7014
       389.2084        303.2844
  22823466.7774  -14072774.11047 -10952256.16546  22823466.5284   22823469.9034
     -3398.4984      -2648.1474
  22262071.8084  -12973481.50747 -10060463.00047  22262070.3864   22262074.0374
       306.4404        238.8024
  20153661.5844  -25501815.24048 -19821197.05548  20153660.6754   20153664.0804
     -1189.8204       -927.1244
  21731191.0374  -12909259.73448 -10050590.72547  21731190.9854   21731191.1834
      1989.9334       1550.5944
  22742058.5984  -14404069.70747 -11218940.96347  22742059.2334   22742064.0854
      2234.7194       1741.3724
  21133167.4674  -23527278.47048 -18288512.78747  21133167.0964   21133169.5744
     -2662.6904      -2074.8194
  22601007.9074  -14094129.95547 -10980083.83446  22601007.5744   22601011.5704
       651.6044        507.7474
 06  6 25 17 13  0.0000000  0  9G 1G18G 9G14G15G22G30G21G 5
  24577038.0384   -2647816.05346  -2060506.51545  24577035.9194   24577041.9844
      1256.2984        978.9454
  20982130.2984  -24660035.61948 -19201345.03448  20982130.1884   20982131.7564
       379.3154        295.5764
  22842891.1394  -13970695.53247 -10872714.47846  22842891.4344   22842892.2304
     -3405.6734      -2653.7664
  22260332.1984  -12982620.40247 -10067584.22147  22260333.1724   22260334.5334
       303.8324        236.7504
  20160511.5174  -25465819.30048 -19793148.30748  20160511.0574   20160513.7674
     -1208.9824       -942.0634
  21719840.4754  -12968905.39148 -10097067.86247  21719841.1084   21719840.8324
      1987.2754       1548.5254
  22729318.8334  -14471025.98447 -11271114.67747  22729318.9884   22729321.0104
      2229.9354       1737.6284
  21148408.0654  -23447193.08448 -18226108.64747  21148406.8584   21148409.9284
     -2675.5214      -2084.8174
  22597330.5864  -14113457.08647 -10995143.94247  22597330.7824   22597333.6534
       637.6064        496.8484
 06  6 25 17 13 30.0000000  0  9G 1G18G 9G14G15G22G30G21G 5
  24569882.0354   -2685425.80246  -2089812.75245  24569880.3314   24569884.9824
      1251.5814        975.2634
  20979996.4854  -24671249.68748 -19210083.29348  20979996.2484   20979997.6144
       368.8694        287.4234
  22862356.7854  -13868404.78747 -10793007.40946  22862357.8524   22862360.8894
     -3413.1434      -2659.6044
  22258607.6684  -12991683.52147 -10074646.40347  22258607.5384   22258608.5494
       301.1594        234.6744
  20167470.0474  -25429248.61348 -19764651.70748  20167470.0324   20167473.5894
     -1228.4904       -957.2714
  21708506.6124  -13028472.08248 -10143483.47347  21708506.1654   21708505.6024
      1984.3134       1546.2264
  22716605.1994  -14537835.87747 -11323174.30047  22716605.1004   22716607.3024
      2224.5284       1733.3874
  21163719.8244  -23366724.91448 -18163406.23347  21163718.9584   21163721.9294
     -2688.5114      -2094.9454
  22593730.6904  -14132370.28247 -11009881.48947  22593730.4034   22593734.0364
       623.4464        485.7914
 06  6 25 17 14  0.0000000  0  9G 1G18G 9G14G15G22G30G21G 5
  24562750.0674   -2722903.16946  -2119015.83945  24562750.1624   24562754.0254
      1248.1194        972.5574
  20977920.9784  -24682155.54448 -19218581.38748  20977920.9114   20977922.0874
       359.0754        279.7944
  22881862.6804  -13765898.73447 -10713132.68446  22881862.1714   22881866.7094
     -3419.8844      -2664.8444
  22256898.7924  -13000665.93447 -10081645.69447  22256898.9164   22256900.2004
       299.0344        233.0354
  20174539.8184  -25392098.53548 -19735703.63348  20174539.0784   20174543.0104
     -1247.2604       -971.8884
  21697186.7554  -13087951.37548 -10189830.97647  21697187.5194   21697187.2254
      1981.8444       1544.2994
  22703920.3754  -14604489.55847 -11375112.22647  22703920.2794   22703924.9864
      2219.9304       1729.7964
  21179105.6774  -23285870.34848 -18100402.73147  21179106.0164   21179107.8384
     -2700.7884      -2104.5184
  22590211.7454  -14150861.27547 -11024290.04447  22590211.6114   22590216.3904
       609.9264        475.2594
 06  6 25 17 14 30.0000000  0  9G 1G18G 9G14G15G22G30G21G 5
  24555640.9874   -2760252.03046  -2148118.77946  24555641.0874   24555647.1254
      1243.1924        968.7244
  20975904.3584  -24692753.93348 -19226839.89248  20975904.2314   20975905.4254
       349.0454        271.9834
  22901409.1314  -13663183.48847 -10633094.83646  22901411.0574   22901409.4704
     -3426.2374      -2669.7814
  22255203.7414  -13009571.75347 -10088585.29447  22255203.9894   22255206.6124
       296.3924        230.9684
  20181718.7694  -25354373.66548 -19706307.67048  20181718.1754   20181721.6334
     -1266.1474       -986.6044
  21685885.1424  -13147343.98348 -10236110.92747  21685884.8594   21685885.2284
      1979.2354       1542.2654
  22691267.2574  -14670987.18947 -11426928.54347  22691267.9624   22691270.1514
      2215.0564       1726.0394
  21194564.2324  -23204635.34348 -18037102.77747  21194563.9534   21194566.6034
     -2713.3174      -2114.2764
  22586773.8844  -14168930.89447 -11038370.26247  22586773.8654   22586778.0174
       596.0724        464.4664
 06  6 25 17 15  0.0000000  0  9G 1G18G 9G14G15G22G30G21G 5
  24548559.7064   -2797471.31446  -2177120.76245  24548558.2194   24548564.2074
      1237.9624        964.6374
  20973946.8634  -24703040.86848 -19234855.70848  20973946.5384   20973947.9744
       337.1314        262.6994
  22920994.1034  -13560259.55547 -10552894.40846  22920993.7544   22920999.2184
     -3434.7084      -2676.3984
  22253524.3314  -13018400.06047 -10095464.49447  22253523.9264   22253525.4444
       292.3144        227.7914
  20189006.8584  -25316073.72348 -19676463.59748  20189006.4674   20189010.0004
     -1286.7984      -1002.6914
  21674600.5694  -13206645.35848 -10282319.79647  21674600.5914   21674600.3084
      1974.6534       1538.6904
  22678643.1434  -14737323.32347 -11478619.00847  22678644.0224   22678648.6154
      2207.8044       1720.3844
  21210095.0564  -23123020.50848 -17973506.86147  21210095.7144   21210097.6184
     -2727.3384      -2125.1974
  22583416.3624  -14186574.97547 -11052118.90347  22583415.8414   22583419.2014
       580.3804        452.2274
 06  6 25 17 15 30.0000000  0  9G 1G18G 9G14G15G22G30G21G 5
  24541499.3964   -2834562.76646  -2206023.10146  24541499.5564   24541507.4244
      1234.3164        961.8004
  20972048.8014  -24713014.77548 -19242627.60748  20972048.6274   20972050.0014
       326.8284        254.6664
  22940621.6634  -13457130.27347 -10472534.04247  22940620.9244   22940623.6634
     -3441.4304      -2681.6454
  22251859.0154  -13027152.86247 -10102284.85847  22251857.9464   22251860.1524
       289.9714        225.9284
  20196404.2534  -25277200.88948 -19646173.11548  20196403.3604   20196407.1454
     -1305.4354      -1017.2224
  21663333.3214  -13265854.65548 -10328456.91747  21663333.4584   21663332.7704
      1971.6284       1536.3334
  22666051.0914  -14803495.67047 -11530181.86747  22666050.7784   22666054.3564
      2202.6774       1716.3744
  21225697.5974  -23041029.42248 -17909617.75947  21225697.0234   21225699.9134
     -2739.4634      -2134.6574
  22580140.7284  -14203792.07447 -11065534.83347  22580140.4634   22580143.4834
       566.1744        441.1624
 06  6 25 17 16  0.0000000  0  9G 1G18G 9G14G15G22G30G21G 5
  24534466.5344   -2871527.98846  -2234827.11746  24534466.3684   24534472.2284
      1229.4414        958.0034
  20970210.4074  -24722674.82448 -19250154.94148  20970210.5184   20970211.5894
       316.5284        246.6454
  22960281.0864  -13353799.52647 -10392016.58546  22960283.5254   22960281.6694
     -3448.0664      -2686.8264
  22250206.9664  -13035832.08047 -10109047.89747  22250207.2194   22250209.7234
       287.8174        224.2524
  20203910.1094  -25237757.34948 -19615437.92548  20203909.6024   20203913.0214
     -1324.6154      -1032.1694
  21652084.3894  -13324970.17248 -10374520.95947  21652083.7624   21652083.5284
      1968.7394       1534.0884
  22653490.2004  -14869501.84247 -11581615.22347  22653490.3474   22653494.1134
      2197.1414       1712.0534
  21241371.2674  -22958666.08248 -17845438.59147  21241370.6654   21241373.3614
     -2751.8894      -2144.3384
  22576946.2454  -14220580.87947 -11078617.02547  22576945.7394   22576946.6654
       552.0194        430.1394
 06  6 25 17 16 30.0000000  0  9G 1G18G 9G14G15G22G30G21G 5
  24527457.6934   -2908368.32646  -2263533.85246  24527455.5174   24527462.1854
      1227.4764        956.4674
  20968432.6484  -24732018.98548 -19257436.13048  20968432.3634   20968433.4714
       307.0664        239.2654
  22979985.1134  -13250270.34147 -10311344.54247  22979985.3294   22979987.8864
     -3453.2234      -2690.8214
  22248568.8114  -13044439.03347 -10115754.61247  22248568.9674   22248570.9514
       286.7474        223.4354
  20211524.3394  -25197745.02848 -19584259.53448  20211523.9234   20211527.2804
     -1342.2854      -1045.9364
  21640852.2214  -13383989.78148 -10420510.26347  21640852.7434   21640852.9104
      1966.8034       1532.5834
  22640962.4484  -14935338.47047 -11632916.48447  22640963.1384   22640965.4864
      2192.5134       1708.4804
  21257114.5834  -22875932.54048 -17780970.95547  21257113.9204   21257116.9264
     -2762.8464      -2152.8694
  22573832.7264  -14236939.66447 -11091364.12747  22573831.5704   22573836.1474
       539.0544        420.0584
 06  6 25 17 17  0.0000000  0  9G 1G18G 9G14G15G22G30G21G 5
  24520468.7644   -2945089.82846  -2292147.96946  24520467.5864   24520472.0954
      1222.2534        952.4044
  20966713.9304  -24741050.23548 -19264473.49348  20966713.7534   20966715.1614
       296.0954        230.7264
  22999721.1054  -13146551.22747 -10230524.54446  22999720.3934   22999725.1914
     -3460.2914      -2696.3224
  22246943.9454  -13052980.29547 -10122410.13647  22246942.5664   22246944.9814
       283.6464        221.0094
  20219245.3634  -25157170.76948 -19552643.26548  20219244.8704   20219248.3314
     -1361.7384      -1061.0944
  21629639.9764  -13442916.62248 -10466427.28947  21629639.7824   21629638.9154
      1962.9434       1529.5684
  22628465.7964  -15001007.65547 -11684087.26147  22628467.1794   22628469.6764
      2186.3854       1703.6444
  21272927.2224  -22792837.24548 -17716221.43347  21272926.9254   21272929.0294
     -2775.5344      -2162.7694
  22570801.3604  -14252871.49447 -11103778.55047  22570801.4964   22570804.4334
       524.1584        408.4394
 06  6 25 17 17 30.0000000  0  9G 1G18G 9G14G15G22G30G21G 5
  24513503.1404   -2981683.67846  -2320662.64145  24513503.2684   24513509.9144
      1216.6824        948.0634
  20965056.6954  -24749757.24248 -19271258.20048  20965056.6144   20965058.4084
       284.0914        221.3734
  23019495.7664  -13042634.79147 -10149550.72346  23019496.1444   23019495.3064
     -3467.8774      -2702.2394
  22245332.6934  -13061447.33248 -10129007.82547  22245332.7774   22245333.8344
       280.2494        218.3444
  20227074.5794  -25116026.52948 -19520582.85548  20227074.1304   20227077.4594
     -1381.7414      -1076.6904
  21618446.3544  -13501738.88948 -10512262.82747  21618446.1964   21618446.0194
      1958.1884       1525.8544
  22616002.7674  -15066496.17347 -11735117.26047  22616003.6574   22616006.6214
      2179.2584       1698.1094
  21288809.7394  -22709374.25548 -17651185.39447  21288809.2394   21288811.9864
     -2789.0224      -2173.2654
  22567853.4744  -14268364.56347 -11115851.07647  22567852.3514   22567855.1684
       508.0724        395.8854
 06  6 25 17 18  0.0000000  0  9G 1G18G 9G14G15G22G30G21G 5
  24506562.7704   -3018155.92346  -2349082.53246  24506562.5254   24506570.6634
      1213.2104        945.3504
  20963461.8004  -24758142.38748 -19277792.10048  20963461.1774   20963462.6044
       273.6214        213.2044
  23039306.9314  -12938529.08047 -10068429.41346  23039306.5284   23039310.8484
     -3473.9564      -2706.9854
  22243734.0034  -13069846.01648 -10135552.26847  22243734.3174   22243737.2584
       278.1644        216.7424
  20235011.4354  -25074319.02748 -19488083.53948  20235010.8154   20235014.4424
     -1400.1984      -1091.0654
  21607270.4354  -13560459.04748 -10558018.79247  21607271.4434   21607272.3754
      1955.0734       1523.4254
  22603575.4414  -15131806.33247 -11786008.27747  22603575.6084   22603578.6544
      2173.3174       1693.4924
  21304760.9894  -22625550.67348 -17585868.38047  21304760.6624   21304763.1454
     -2800.7144      -2182.3694
  22564987.2284  -14283421.82047 -11127584.01747  22564987.1544   22564990.2244
       493.9154        384.8484
 06  6 25 17 18 30.0000000  0  9G 1G18G 9G14G15G22G30G21G 5
  24499645.9484   -3054505.22046  -2377406.60845  24499645.3644   24499651.3694
      1210.5154        943.2584
  20961927.6904  -24766201.57248 -19284072.01248  20961927.5374   20961928.8164
       263.9844        205.6954
  23059153.0404  -12834234.45847  -9987161.04546  23059153.0724   23059156.6134
     -3478.7104      -2710.6734
  22242148.9274  -13078174.95048 -10142042.34147  22242148.4004   22242150.8004
       277.1894        215.9504
  20243055.3654  -25032047.74448 -19455144.92248  20243054.6534   20243058.0784
     -1417.6994      -1104.7014
  21596118.1574  -13619072.74348 -10603691.80847  21596118.3064   21596118.0464
      1952.7054       1521.5864
  22591183.0044  -15196932.37147 -11836755.81947  22591183.3584   22591185.9004
      2168.5144       1689.7724
  21320780.5874  -22541366.53548 -17520270.40347  21320779.9084   21320782.4004
     -2811.4894      -2190.7804
  22562205.4994  -14298039.11947 -11138974.12647  22562205.0224   22562208.9114
       480.6734        374.5554
 06  6 25 17 19  0.0000000  0  9G 1G18G 9G14G15G22G30G21G 5
  24492751.1654   -3090738.93946  -2405640.61146  24492751.5474   24492758.4474
      1206.1484        939.8594
  20960455.8194  -24773939.05648 -19290101.24648  20960455.4554   20960456.5964
       253.0254        197.1574
  23079034.1164  -12729760.39147  -9905752.63646  23079034.1494   23079034.8324
     -3484.8904      -2715.4834
  22240576.8834  -13086442.02447 -10148484.22847  22240575.9264   22240578.7014
       275.1334        214.3944
  20251205.1534  -24989221.28248 -19421773.69348  20251204.5984   20251208.3964
     -1436.3064      -1119.1994
  21584984.1284  -13677584.27148 -10649285.22547  21584984.3494   21584983.7384
      1949.1384       1518.8074
  22578823.7164  -15261877.72547 -11887362.57947  22578823.2614   22578827.6464
      2162.1954       1684.8394
  21336867.5704  -22456831.68048 -17454399.15147  21336867.5014   21336869.2524
     -2823.0404      -2199.7844
  22559507.8274  -14312220.79547 -11150024.79647  22559507.5704   22559510.2804
       466.0664        363.1834
 06  6 25 17 19 30.0000000  0  9G 1G18G 9G14G15G22G30G21G 5
  24485879.6804   -3126855.08246  -2433783.01346  24485880.7364   24485884.2204
      1201.5434        936.2554
  20959045.0654  -24781350.39048 -19295876.33448  20959045.0924   20959046.4374
       241.2814        188.0194
  23098948.2304  -12625106.34347  -9824204.12046  23098946.9484   23098952.4074
     -3491.9304      -2720.9674
  22239014.7844  -13094645.46247 -10154876.50047  22239014.0564   22239016.4874
       272.0234        211.9754
  20259460.7414  -24945837.99648 -19387968.57348  20259459.9604   20259463.9464
     -1455.6434      -1134.2644
  21573869.9904  -13735988.19448 -10694794.77447  21573869.5954   21573870.0824
      1944.6644       1515.3264
  22566500.6374  -15326635.55147 -11937823.20847  22566501.3554   22566503.7204
      2155.1414       1679.3034
  21353021.0124  -22371946.11748 -17388254.61147  21353019.8364   21353022.6114
     -2835.7764      -2209.6984
  22556893.3484  -14325961.84147 -11160732.10547  22556891.7574   22556895.6464
       450.2594        350.8514
 06  6 25 17 20  0.0000000  0  9G 1G18G 9G14G15G22G30G21G 5
  24479028.1384   -3162853.00946  -2461833.30746  24479027.9104   24479031.6744
      1199.1644        934.4114
  20957698.0264  -24788431.13648 -19301393.82848  20957697.1964   20957698.7104
       231.4714        180.3614
  23118898.6514  -12520273.68847  -9742516.44846  23118898.0654   23118899.6514
     -3496.3474      -2724.4304
  22237466.3874  -13102784.36647 -10161218.51347  22237466.8254   22237467.8534
       271.1044        211.2384
  20267822.0144  -24901898.08948 -19353729.73148  20267821.7754   20267824.7594
     -1472.9584      -1147.7574
  21562777.8134  -13794280.66048 -10740217.48447  21562776.9304   21562777.0084
      1942.1564       1513.3604
  22554213.4694  -15391201.16847 -11988134.05647  22554215.6704   22554217.6084
      2149.8894       1675.2524
  21369240.4694  -22286710.50648 -17321837.31447  21369239.8844   21369242.0134
     -2846.0344      -2217.6964
  22554362.0784  -14339258.66847 -11171093.28047  22554362.9724   22554365.2144
       436.5014        340.1164
 06  6 25 17 20 30.0000000  0  9G 1G18G 9G14G15G22G30G21G 5
  24472201.1884   -3198732.58646  -2489791.36145  24472200.0134   24472204.9664
      1193.3134        929.8534
  20956414.0194  -24795178.83848 -19306651.80548  20956413.6034   20956414.9774
       218.1564        170.0034
  23138879.1924  -12415264.06647  -9660690.74346  23138882.0034   23138881.7234
     -3504.3764      -2730.6694
  22235929.3714  -13110859.20547 -10167510.59247  22235929.0194   22235931.6604
       267.0834        208.1254
  20276289.4904  -24857402.53448 -19319057.90848  20276288.9484   20276292.6374
     -1493.5344      -1163.7854
  21551706.9984  -13852458.43548 -10785550.82447  21551706.5794   21551706.0994
      1936.1744       1508.7214
  22541965.2074  -15455570.48447 -12038291.93947  22541966.3434   22541968.3244
      2141.0354       1668.3574
  21385526.3284  -22201127.11548 -17255149.01847  21385525.8964   21385528.2684
     -2859.8014      -2228.4144
  22551917.1134  -14352108.37047 -11181106.04547  22551916.6764   22551919.3134
       419.4574        326.8534
 06  6 25 17 21  0.0000000  0  9G 1G18G 9G14G15G22G30G21G 5
  24465392.5384   -3234500.94646  -2517662.78645  24465393.8174   24465399.1504
      1191.2214        928.2314
  20955191.9804  -24801597.49648 -19311653.38048  20955192.0754   20955193.4954
       208.6824        162.6194
  23158895.7394  -12310086.52647  -9578734.31546  23158895.5824   23158900.0284
     -3508.2504      -2733.6874
  22234403.8874  -13118876.66347 -10173757.96647  22234403.5604   22234405.0864
       266.4074        207.6094
  20284860.7664  -24812359.05748 -19283959.13548  20284860.5584   20284864.0984
     -1510.2484      -1176.8054
  21540656.2224  -13910525.07348 -10830797.56247  21540657.0814   21540656.5234
      1933.9194       1506.9654
  22529753.8024  -15519746.57148 -12088299.28047  22529754.1314   22529755.9004
      2136.1704       1664.5684
  21401876.3234  -22115205.02048 -17188196.79947  21401876.6654   21401878.8304
     -2869.3864      -2235.8744
  22549555.4774  -14364515.04947 -11190773.60147  22549555.7104   22549558.6094
       406.4904        316.7604
 06  6 25 17 21 30.0000000  0  9G 1G18G 9G14G15G22G30G21G 5
  24458609.5964   -3270156.86446  -2545446.55246  24458609.8764   24458614.2624
      1186.6884        924.6874
  20954034.3694  -24807682.60448 -19316395.05148  20954034.0874   20954035.3594
       196.9314        153.4604
  23178941.6314  -12204741.30447  -9496647.21046  23178941.0354   23178943.0314
     -3514.7224      -2738.7424
  22232889.3534  -13126836.35647 -10179960.32847  22232888.8894   22232891.7344
       264.0704        205.7704
  20293536.8604  -24766767.32748 -19248433.15648  20293536.3334   20293540.0244
     -1529.1394      -1191.5294
  21529628.4764  -13968476.13948 -10875954.24747  21529629.1104   21529629.0054
      1929.4664       1503.4974
  22517578.4144  -15583723.45547 -12138151.38047  22517579.0934   22517582.7044
      2128.7774       1658.7694
  21418291.5424  -22028945.13948 -17120981.36447  21418290.8304   21418293.4344
     -2881.1044      -2245.0014
  22547280.1714  -14376474.62047 -11200092.75347  22547279.8964   22547282.9544
       390.7634        304.5094
 06  6 25 17 22  0.0000000  0  9G 1G18G 9G14G15G22G30G21G 5
  24451847.7154   -3305698.29946  -2573141.15746  24451844.9684   24451849.6194
      1182.8534        921.7064
  20952940.9484  -24813429.67648 -19320873.31148  20952940.4654   20952941.8114
       186.0004        144.9244
  23199020.1714  -12099228.92547  -9414429.78346  23199020.9194   23199023.2234
     -3519.8254      -2742.7274
  22231385.9854  -13134735.95247 -10186115.85547  22231385.6574   22231387.2834
       262.3944        204.4464
  20302316.7834  -24720626.37148 -19212479.20448  20302316.6514   20302320.2094
     -1547.1004      -1205.5404
  21518624.3284  -14026306.66948 -10921017.01447  21518624.2234   21518624.4084
      1925.6064       1500.4734
  22505443.7104  -15647495.08747 -12187843.54447  22505442.0354   22505446.1294
      2122.1914       1653.6214
  21434770.4214  -21942346.79748 -17053502.19947  21434771.0474   21434772.7784
     -2892.1064      -2253.6004
  22545090.1034  -14387982.27247 -11209059.77847  22545089.7794   22545094.6364
       375.8974        292.9044
 06  6 25 17 22 30.0000000  0 10G 1G18G 9G14G15G22G30G21G 5G25
  24445104.2394   -3341129.48446  -2600749.82846  24445102.9954   24445110.2384
      1178.8734        918.6054
  20951911.0154  -24818839.77648 -19325088.99048  20951910.8754   20951912.4214
       173.1984        134.9524
  23219129.9014  -11993554.71147  -9332086.33046  23219128.1794   23219132.4694
     -3526.7514      -2748.1284
  22229893.9934  -13142579.89547 -10192228.02247  22229894.0754   22229895.1404
       259.0544        201.8474
  20311200.8474  -24673941.28048 -19176101.24548  20311200.5134   20311203.8894
     -1566.6394      -1220.7664
  21507641.4484  -14084017.28848 -10965986.33347  21507642.8374   21507642.2184
      1920.0884       1496.1584
  22493347.5124  -15711061.26448 -12237375.60747  22493348.1974   22493350.8594
      2113.8664       1647.1614
  21451313.3614  -21855416.72948 -16985764.54747  21451312.2124   21451315.2374
     -2904.7414      -2263.4284
  22542986.3584  -14399039.16047 -11217675.54347  22542986.2614   22542990.0744
       359.4964        280.1444
  23716446.2714   -1504053.90647  -1160686.04146  23716447.4304   23716453.6204
      3017.0134       2350.9134
 06  6 25 17 23  0.0000000  0 10G 1G18G 9G14G15G22G30G21G 5G25
  24438381.0354   -3376449.87046  -2628272.16446  24438381.3524   24438387.8134
      1175.4514        915.9474
  20950946.7784  -24823909.43848 -19329039.40448  20950946.6514   20950947.5244
       163.4384        127.3474
  23239268.6884  -11887720.25747  -9249617.97946  23239267.5774   23239270.2574
     -3530.3114      -2750.9104
  22228411.6404  -13150367.75048 -10198296.49447  22228411.7254   22228413.1374
       258.9164        201.7714
  20320188.3814  -24626712.41948 -19139299.58048  20320187.4834   20320191.4994
     -1583.1604      -1233.6374
  21496683.7084  -14141604.32248 -11010859.36247  21496683.7144   21496683.6354
      1917.6764       1494.2874
  22481291.2804  -15774417.75248 -12286744.28647  22481291.6704   22481295.1524
      2108.4344       1642.9254
  21467918.2234  -21768155.52948 -16917768.88247  21467917.1354   21467919.8844
     -2913.8704      -2270.5744
  22540968.8704  -14409642.13347 -11225937.61947  22540969.1114   22540971.0014
       345.9514        269.5674
  23699240.6314   -1594479.05147  -1231147.09746  23699240.3274   23699245.3584
      3009.7424       2345.2534
 06  6 25 17 23 30.0000000  0 10G 1G18G 9G14G15G22G30G21G 5G25
  24431680.9314   -3411663.12246  -2655711.03146  24431680.4984   24431686.6674
      1171.4304        912.8134
  20950046.6144  -24828639.05248 -19332724.83548  20950046.3544   20950047.9664
       151.3784        117.9504
  23259437.9734  -11781730.51047  -9167028.60546  23259439.3084   23259441.1624
     -3536.1944      -2755.4824
  22226939.0014  -13158103.16447 -10204324.09547  22226939.7494   22226940.9494
       256.0944        199.5444
  20329278.5944  -24578944.32048 -19102077.71948  20329278.0484   20329281.5134
     -1601.9594      -1248.2814
  21485749.0694  -14199067.95348 -11055636.22947  21485749.1514   21485748.5984
      1912.7504       1490.4544
  22469274.3734  -15837563.59648 -12335948.82147  22469274.9054   22469277.1864
      2100.7094       1636.9054
  21484585.5814  -21680569.01148 -16849519.69747  21484584.9744   21484587.5664
     -2925.7174      -2279.7904
  22539036.8574  -14419791.84447 -11233846.48647  22539036.1804   22539039.8464
       330.1254        257.2474
  23682084.8654   -1684633.04647  -1301396.87746  23682083.5184   23682088.2904
      2999.9764       2337.6384
 06  6 25 17 24  0.0000000  0 10G 1G18G 9G14G15G22G30G21G 5G25
  24425002.9014   -3446766.47646  -2683064.23546  24425001.4454   24425007.4474
      1168.5344        910.5434
  20949212.5574  -24833023.11448 -19336141.01948  20949212.0424   20949213.3794
       140.6144        109.5684
  23279636.9974  -11675584.57847  -9084317.56346  23279636.9654   23279640.1124
     -3540.6014      -2758.9124
  22225478.2614  -13165783.53547 -10210308.81547  22225477.4224   22225478.7624
       255.3054        198.9454
  20338471.0124  -24530635.30548 -19064434.37348  20338471.0844   20338474.3224
     -1619.2044      -1261.7184
  21474838.2364  -14256402.02848 -11100312.14047  21474838.7664   21474838.3394
      1909.2634       1487.7424
  22457299.4084  -15900492.28748 -12384984.14947  22457299.2204   22457301.3794
      2094.0504       1631.7074
  21501314.6374  -21592656.85048 -16781016.78447  21501314.7864   21501315.9044
     -2935.6434      -2287.4964
  22537194.1284  -14429482.90347 -11241397.97347  22537192.6194   22537195.9294
       315.5934        245.9224
  23664979.8464   -1774510.25347  -1371430.98646  23664980.0294   23664986.7464
      2991.3384       2330.9124
 06  6 25 17 24 30.0000000  0 10G 1G18G 9G14G15G22G30G21G 5G25
  24418341.8744   -3481766.22246  -2710336.76546  24418339.8054   24418345.6524
      1164.6324        907.5034
  20948443.0494  -24837064.63748 -19339290.28148  20948443.1424   20948444.4074
       129.0184        100.5354
  23299863.7134  -11569290.83547  -9001491.32346  23299863.8284   23299867.0754
     -3545.5114      -2762.7294
  22224025.2544  -13173415.13848 -10216255.52447  22224026.1104   22224026.9254
       253.6794        197.6724
  20347766.0854  -24481792.68648 -19026375.23048  20347765.4584   20347768.9754
     -1636.8754      -1275.4864
  21463952.1394  -14313609.51848 -11144889.41847  21463952.4314   21463952.2324
      1904.8704       1484.3144
  22445365.6494  -15963204.95948 -12433851.15047  22445366.2924   22445368.6884
      2086.9824       1626.2044
  21518104.6324  -21504426.65548 -16712266.04847  21518104.0184   21518107.1144
     -2946.1284      -2295.6774
  22535435.0384  -14438718.75447 -11248594.74747  22535434.8644   22535439.1714
       300.4144        234.0834
  23647929.1204   -1864113.87847  -1441251.90446  23647929.6304   23647935.3164
      2982.0514       2323.6734
 06  6 25 17 25  0.0000000  0 10G 1G18G 9G14G15G22G30G21G 5G25
  24411700.7624   -3516659.00046  -2737525.92846  24411702.0894   24411706.8204
      1162.0344        905.4924
  20947740.5414  -24840757.51448 -19342167.87548  20947740.2824   20947741.7744
       117.5084         91.5654
  23320120.6144  -11462847.33547  -8918548.40146  23320118.9984   23320122.9384
     -3550.2834      -2766.4524
  22222583.4644  -13180994.50247 -10222161.52547  22222582.4344   22222584.0634
       252.1964        196.5244
  20357162.3414  -24432414.14648 -18987898.48348  20357161.6084   20357165.4254
     -1654.4904      -1289.2124
  21453091.8774  -14370683.79848 -11189362.90347  21453091.6554   21453091.1174
      1900.5454       1480.9474
  22433474.2224  -16025694.22148 -12482544.05147  22433475.4584   22433477.4144
      2079.3784       1620.3024
  21534954.8944  -21415877.00048 -16643266.38947  21534955.0124   21534956.9394
     -2956.5154      -2303.7674
  22533766.7364  -14447492.98047 -11255431.83047  22533766.3184   22533768.9434
       285.0264        222.1004
  23630931.8164   -1953437.34647  -1510854.52646  23630933.1744   23630938.5654
      2973.2784       2316.8324
 06  6 25 17 25 30.0000000  0 10G 1G18G 9G14G15G22G30G21G 5G25
  24405079.2054   -3551451.21046  -2764636.74246  24405081.3044   24405086.2744
      1157.9054        902.2564
  20947103.5114  -24844105.74348 -19344776.90748  20947102.9674   20947104.6484
       105.4904         82.1974
  23340401.4054  -11356262.17347  -8835495.07746  23340402.0224   23340406.7344
     -3555.3654      -2770.4154
  22221149.5864  -13188527.97547 -10228031.77447  22221149.6584   22221151.2484
       250.0954        194.8504
  20366659.4384  -24382507.03848 -18949009.86348  20366659.0484   20366662.2584
     -1672.6464      -1303.3634
  21442254.7784  -14427627.93448 -11233734.96947  21442255.1774   21442255.5874
      1895.6684       1477.1414
  22421624.7734  -16087962.30148 -12531064.60647  22421624.9614   22421628.8304
      2071.5264       1614.1934
  21551864.5714  -21327016.31948 -16574024.36447  21551863.7004   21551865.9264
     -2967.4324      -2312.3104
  22532183.8234  -14455809.38047 -11261912.16047  22532182.6094   22532186.9564
       269.4054        209.9114
  23613986.4314   -2042484.10747  -1580241.53746  23613986.2504   23613994.6824
      2963.0804       2308.8894
 06  6 25 17 26  0.0000000  0 10G 1G18G 9G14G15G22G30G21G 5G25
  24398479.7894   -3586137.24046  -2791664.79146  24398478.6714   24398485.7184
      1155.1304        900.0964
  20946533.5684  -24847100.09148 -19347110.18848  20946533.6014   20946534.7004
        94.5264         73.6624
  23360712.5434  -11249531.44347  -8752328.34146  23360712.8274   23360715.7854
     -3559.5554      -2773.6774
  22219725.9414  -13196010.04948 -10233861.98047  22219725.9404   22219728.0214
       249.2364        194.2174
  20376258.1334  -24332066.76348 -18909705.79248  20376256.9974   20376260.9214
     -1689.5724      -1316.5404
  21431445.8784  -14484432.49748 -11277998.27547  21431445.6104   21431445.4964
      1891.8254       1474.1554
  22409819.2154  -16149999.73148 -12579405.45047  22409819.3024   22409823.2554
      2064.8364       1608.9834
  21568833.1004  -21237840.98248 -16504537.14747  21568833.5454   21568836.4034
     -2977.0454      -2319.7654
  22530688.9444  -14463659.57847 -11268029.21347  22530688.3194   22530692.8174
       254.6794        198.4684
  23597096.2284   -2131245.62247  -1649406.28746  23597095.9434   23597101.6804
      2954.3774       2302.1214
 06  6 25 17 26 30.0000000  0 10G 1G18G 9G14G15G22G30G21G 5G25
  24391898.5994   -3620724.25146  -2818615.67646  24391898.1784   24391903.8754
      1150.4844        896.4804
  20946030.3654  -24849745.34348 -19349171.44548  20946030.1364   20946031.3184
        81.8104         63.7604
  23381048.9434  -11142664.07047  -8669055.11346  23381049.3034   23381052.7844
     -3564.8494      -2777.7994
  22218310.6744  -13203448.29048 -10239658.03047  22218310.3274   22218312.8854
       246.7994        192.3014
  20385956.1544  -24281101.67648 -18869992.77148  20385955.6034   20385959.7004
     -1707.9774      -1330.8834
  21420662.7754  -14541101.86648 -11322156.24047  21420662.4624   21420662.3514
      1886.2574       1469.8114
  22398058.5344  -16211808.87448 -12627568.40247  22398057.9794   22398061.3414
      2055.8724       1601.9694
  21585861.6164  -21148360.13948 -16434811.88747  21585860.9354   21585863.5814
     -2988.0594      -2328.3384
  22529284.2204  -14471048.15547 -11273786.55747  22529282.6514   22529286.3464
       238.0034        185.4304
  23580259.0274   -2219726.10847  -1718352.04746  23580257.7454   23580264.2324
      2943.9584       2293.9894
 06  6 25 17 27  0.0000000  0 10G 1G18G 9G14G15G22G30G21G 5G25
  24385336.1094   -3655210.67946  -2845488.17946  24385336.6754   24385343.3294
      1147.5364        894.1844
  20945594.5934  -24852036.49248 -19350956.77348  20945593.7634   20945595.0304
        70.1784         54.6804
  23401410.8004  -11035660.00747  -8585675.39746  23401411.2474   23401415.1544
     -3569.3164      -2781.2814
  22216904.4734  -13210841.02248 -10245418.61247  22216903.4284   22216904.5304
       245.4564        191.2494
  20395754.6084  -24229611.13148 -18829870.31048  20395753.8544   20395757.6324
     -1725.5694      -1344.6024
  21409905.0934  -14597630.98648 -11366204.92147  21409904.8264   21409904.4014
      1881.5564       1466.1484
  22386340.0264  -16273384.47548 -12675549.36447  22386340.3944   22386343.7714
      2048.1334       1595.9304
  21602947.6124  -21058574.32248 -16364848.98847  21602946.9194   21602949.5964
     -2998.4164      -2336.4234
  22527966.0134  -14477970.81247 -11279180.84947  22527966.0324   22527968.9744
       222.3624        173.2624
  23563475.2514   -2307921.00547  -1787075.27546  23563475.3944   23563481.1594
      2934.5864       2286.6874
 06  6 25 17 27 30.0000000  0 10G 1G18G 9G14G15G22G30G21G 5G25
  24378792.8004   -3689595.19646  -2872281.27846  24378792.8174   24378798.0174
      1144.9464        892.1634
  20945226.2024  -24853969.76048 -19352463.24348  20945225.9894   20945227.3254
        58.6084         45.6674
  23421799.6444  -10928519.82047  -8502189.62046  23421798.2534   23421801.5094
     -3573.8394      -2784.8094
  22215506.0974  -13218186.88048 -10251142.67947  22215505.6484   22215507.7964
       244.2884        190.3514
  20405653.3564  -24177595.05648 -18789338.34248  20405652.2574   20405656.6084
     -1742.4724      -1357.7694
  21399175.5804  -14654014.95648 -11410140.49947  21399174.9004   21399175.3914
      1877.2824       1462.8224
  22374667.9164  -16334721.06448 -12723344.07947  22374668.1314   22374672.1934
      2040.5214       1590.0164
  21620091.2364  -20968484.36748 -16294649.08747  21620091.8864   21620093.7424
     -3007.8724      -2343.7994
  22526739.0284  -14484423.51747 -11284208.93847  22526738.3554   22526740.4274
       207.3484        161.5484
  23546747.0304   -2395825.97047  -1855572.57546  23546748.5844   23546753.7134
      2925.2594       2279.4214
 06  6 25 17 28  0.0000000  0 10G 1G18G 9G14G15G22G30G21G 5G25
  24372267.0024   -3723888.66746  -2899003.45346  24372265.9544   24372271.0244
      1142.1704        890.0064
  20944925.2174  -24855552.71048 -19353696.73348  20944924.8564   20944926.4454
        47.4064         36.9464
  23442211.3904  -10821256.47547  -8418607.83746  23442210.5354   23442214.9034
     -3577.0144      -2787.2674
  22214114.5734  -13225496.67248 -10256838.62847  22214114.5684   22214116.8904
       243.7264        189.9184
  20415649.0814  -24125065.45848 -18748406.23248  20415648.4204   20415652.0294
     -1758.9874      -1370.6304
  21388471.5784  -14710261.33948 -11453968.85847  21388472.0534   21388472.3124
      1873.1504       1459.5954
  22363040.9554  -16395824.47748 -12770957.11647  22363041.4484   22363043.8084
      2033.3414       1584.4124
  21637290.3454  -20878102.52248 -16224221.74147  21637290.1894   21637292.6864
     -3017.1394      -2351.0184
  22525597.9184  -14490414.48447 -11288877.22847  22525597.9214   22525601.3024
       192.2894        149.8454
  23530073.9354   -2483448.85647  -1923850.06746  23530073.9824   23530077.9614
      2916.2134       2272.3714
 06  6 25 17 28 30.0000000  0 10G 1G18G 9G14G15G22G30G21G 5G25
  24365761.0834   -3758078.85046  -2925645.13046  24365762.5994   24365764.6424
      1138.9684        887.5104
  20944693.6084  -24856770.34648 -19354645.55948  20944693.1724   20944694.5714
        35.7774         27.8764
  23462648.2944  -10713858.72947  -8334921.35746  23462649.4224   23462649.4994
     -3580.8814      -2790.3064
  22212733.3574  -13232758.02548 -10262496.83647  22212732.3434   22212734.9994
       242.3734        188.8524
  20425744.9134  -24072011.33448 -18707065.39447  20425744.4354   20425748.1614
     -1775.7994      -1383.7464
  21377798.3504  -14766354.44048 -11497677.78647  21377798.1944   21377798.0254
      1868.5254       1455.9934
  22351460.6914  -16456678.59348 -12818375.89947  22351461.2194   22351463.6524
      2025.5464       1578.3514
  21654547.2064  -20787418.76648 -16153559.13747  21654545.3024   21654549.3364
     -3026.4694      -2358.3124
  22524549.3564  -14495928.82447 -11293174.13147  22524548.0444   22524550.8114
       177.0734        137.9864
  23513456.3284   -2570774.54947  -1991896.00746  23513456.5104   23513462.0604
      2906.8164       2265.0584
 06  6 25 17 29  0.0000000  0 10G 1G18G 9G14G15G22G30G21G 5G25
  24359272.6364   -3792176.57246  -2952214.76546  24359272.5004   24359278.0054
      1135.1264        884.5084
  20944529.5704  -24857630.82848 -19355316.08748  20944529.3774   20944531.0084
        22.6644         17.6564
  23483108.8674  -10606339.48147  -8251140.15546  23483108.7714   23483111.6984
     -3586.1084      -2794.3784
  22211358.6114  -13239981.93048 -10268125.87147  22211358.9004   22211360.6274
       240.3174        187.2444
  20435938.5254  -24018444.77148 -18665325.26148  20435937.9124   20435941.2204
     -1793.9804      -1397.9034
  21367151.8174  -14822302.02848 -11541273.32947  21367151.5454   21367151.7854
      1862.4954       1451.2914
  22339926.0554  -16517290.07248 -12865605.59047  22339926.7684   22339929.2714
      2016.5564       1571.3504
  21671858.5314  -20696445.76948 -16082671.16247  21671858.8854   21671861.1304
     -3037.2784      -2366.7044
  22523588.5244  -14500974.78747 -11297106.05847  22523589.1414   22523590.8154
       160.4064        124.9954
  23496894.2444   -2657810.90847  -2059716.47046  23496893.5134   23496900.2084
      2896.1844       2256.7664
 06  6 25 17 29 30.0000000  0 10G 1G18G 9G14G15G22G30G21G 5G25
  24352800.8794   -3826179.94546  -2978710.87146  24352800.5934   24352805.7694
      1130.9494        881.2574
  20944434.8414  -24858129.54748 -19355704.71648  20944434.8194   20944436.3294
         9.4294          7.3504
  23503592.1894  -10498698.29447  -8167263.98746  23503592.0634   23503595.1194
     -3591.1664      -2798.3084
  22209991.0374  -13247166.64048 -10273724.36747  22209990.0194   22209992.7684
       237.7164        185.2314
  20446229.2334  -23964364.96248 -18623185.18947  20446228.7964   20446232.4634
     -1812.2344      -1412.1414
  21356533.2254  -14878098.73048 -11584751.28847  21356533.5054   21356533.6954
      1856.3194       1446.4734
  22328440.0384  -16577653.00248 -12912641.62547  22328439.7964   22328442.6594
      2006.9604       1563.8534
  21689225.7124  -20605183.55848 -16011557.82847  21689224.8254   21689226.4994
     -3047.9644      -2375.0344
  22522718.5884  -14505547.87747 -11300669.51847  22522717.1914   22522721.7154
       143.7104        111.9824
  23480386.7434   -2744553.24847  -2127307.82746  23480387.4234   23480393.5884
      2885.6824       2248.5794
 06  6 25 17 30  0.0000000  0 10G 1G18G 9G14G15G22G30G21G 5G25
  24346348.5554   -3860092.24646  -3005136.00746  24346345.7844   24346353.8854
      1129.6514        880.2514
  20944409.0384  -24858266.81848 -19355811.70148  20944408.5114   20944410.3924
        -1.0514          -.8244
  23524097.4624  -10390940.02947  -8083296.59946  23524095.7494   23524098.9304
     -3593.4994      -2800.1254
  22208631.0614  -13254315.13848 -10279294.63247  22208630.1404   22208632.7924
       238.0584        185.5114
  20456617.1174  -23909776.28248 -18580648.60347  20456616.8504   20456620.3694
     -1827.7324      -1424.1984
  21345944.4904  -14933744.02148 -11628111.27647  21345944.8984   21345944.6984
      1852.6004       1443.5814
  22317000.5454  -16637766.25748 -12959483.10747  22317001.5254   22317004.0184
      1999.9234       1558.3744
  21706646.0654  -20513637.37148 -15940223.19747  21706645.7684   21706647.8844
     -3055.7644      -2381.0984
  22521937.3254  -14509648.67047 -11303864.94647  22521935.8154   22521940.8414
       129.0174        100.5234
  23463936.3894   -2831001.72747  -2194670.20846  23463936.2894   23463941.2384
      2876.9244       2241.7544
 06  6 25 17 30 30.0000000  0 10G 1G18G 9G14G15G22G30G21G 5G25
  24339913.1124   -3893908.77146  -3031486.50346  24339912.9094   24339918.6514
      1126.9304        878.1374
  20944452.7574  -24858034.93248 -19355631.03648  20944452.8924   20944454.1744
       -12.6694         -9.8804
  23544626.5184  -10283061.45047  -7999235.38546  23544626.2594   23544629.5144
     -3596.4384      -2802.4234
  22207278.2084  -13261422.76348 -10284833.06047  22207278.8614   22207280.2654
       237.4574        185.0514
  20467102.9864  -23854675.33248 -18537712.84247  20467102.1374   20467105.9744
     -1843.9174      -1436.8104
  21335385.9724  -14989229.81248 -11671346.97547  21335386.4494   21335386.3224
      1847.9944       1439.9914
  22305611.3954  -16697620.66848 -13006122.89847  22305611.6494   22305613.7834
      1991.7324       1552.0114
  21724120.9384  -20421804.59348 -15868665.24947  21724120.9854   21724123.1074
     -3064.6474      -2388.0334
  22521249.2834  -14513269.89147 -11306686.67547  22521248.8714   22521251.5754
       113.8254         88.7104
  23447542.2134   -2917148.72447  -2261797.66946  23447542.8714   23447549.0704
      2868.1694       2234.9354
 06  6 25 17 31  0.0000000  0 10G 1G18G 9G14G15G22G30G21G 5G25
  24333493.9234   -3927637.80346  -3057768.85846  24333494.4514   24333499.6134
      1122.5054        874.6774
  20944566.2194  -24857439.31748 -19355166.94048  20944565.6754   20944567.4574
       -26.3874        -20.5624
  23565175.1444  -10175072.37347  -7915088.14946  23565176.1744   23565180.5344
     -3601.9104      -2806.6754
  22205932.5464  -13268497.57948 -10290345.91247  22205931.9134   22205933.8634
       235.0064        183.1204
  20477683.5674  -23799071.70348 -18494385.37947  20477683.0364   20477686.9174
     -1862.2394      -1451.0964
  21324857.2064  -15044560.72448 -11714461.98647  21324857.1694   21324857.0934
      1841.3804       1434.8394
  22294269.5584  -16757220.41348 -13052564.23247  22294269.9344   22294272.2344
      1981.9674       1544.3864
  21741648.7414  -20329695.03048 -15796891.63547  21741648.5814   21741651.5244
     -3075.3394      -2396.3714
  22520649.7004  -14516417.16147 -11309139.09347  22520649.4974   22520652.0414
        96.5924         75.2574
  23431206.8864   -3002999.41647  -2328694.24846  23431206.4684   23431211.8304
      2855.9804       2225.4344
 06  6 25 17 31 30.0000000  0 10G 1G18G 9G14G15G22G30G21G 5G25
  24327093.7354   -3961277.43446  -3083981.52746  24327092.4934   24327096.3244
      1120.2084        872.8914
  20944750.0094  -24856474.94448 -19354415.49148  20944749.7514   20944751.3604
       -38.1114        -29.7054
  23585747.4074  -10066972.88447  -7830854.85046  23585745.9794   23585750.7514
     -3604.8644      -2808.9854
  22204592.3344  -13275537.62048 -10295831.66947  22204592.1264   22204594.6394
       234.4214        182.6494
  20488360.6834  -23742964.65848 -18450665.65047  20488360.1134   20488363.9154
     -1878.4854      -1463.7524
  21314357.6054  -15099731.91648 -11757452.53547  21314358.2424   21314358.6544
      1836.4774       1431.0244
  22282977.6914  -16816559.37148 -13098802.36147  22282977.1384   22282980.4144
      1973.7284       1537.9474
  21759229.8024  -20237309.18148 -15724902.73147  21759228.8234   21759231.8024
     -3083.8054      -2402.9754
  22520142.4004  -14519086.22647 -11311218.88247  22520140.4954   22520145.1024
        81.0154         63.1114
  23414927.2114   -3088549.18947  -2395356.32846  23414927.1834   23414932.5844
      2846.5224       2218.0614
 06  6 25 17 32  0.0000000  0 10G 1G18G 9G14G15G22G30G21G 5G25
  24320708.8904   -3994827.05146  -3110124.07546  24320708.6984   24320714.5954
      1117.8694        871.0694
  20945004.0744  -24855138.57648 -19353374.18748  20945003.6664   20945005.4104
       -49.4644        -38.5424
  23606338.8524   -9958763.55847  -7746535.92946  23606338.6204   23606341.7024
     -3607.5704      -2811.0884
  22203259.0824  -13282542.19348 -10301289.79047  22203259.3744   22203260.8894
       234.3874        182.6464
  20499133.2144  -23686354.80548 -18406554.12247  20499132.6854   20499136.7404
     -1894.0404      -1475.8694
  21303891.1754  -15154738.89148 -11800315.12847  21303890.3244   21303890.7844
      1832.0824       1427.5974
  22271736.8294  -16875632.27348 -13144833.18447  22271736.5404   22271739.8524
      1966.0174       1531.9674
  21776862.3514  -20144648.14448 -15652699.38147  21776861.8054   21776865.1784
     -3091.8664      -2409.2534
  22519725.0064  -14521273.79247 -11312923.47647  22519725.9714   22519728.9924
        66.4064         51.7554
  23398703.3604   -3173794.57647  -2461781.22546  23398705.5434   23398710.3984
      2838.0264       2211.4474
 06  6 25 17 32 30.0000000  0 10G 1G18G 9G14G15G22G30G21G 5G25
  24314340.3244   -4028292.70146  -3136201.17546  24314339.7004   24314344.7974
      1114.0844        868.1264
  20945328.4904  -24853433.61448 -19352045.67048  20945328.0404   20945330.1134
       -62.9714        -49.0644
  23626948.6334   -9850452.41847  -7662137.71346  23626948.3524   23626952.6994
     -3611.7874      -2814.3744
  22201932.3074  -13289517.67148 -10306725.23547  22201932.7104   22201932.6794
       232.1554        180.9214
  20509999.9834  -23629249.42048 -18362056.46347  20509999.6404   20510003.3584
     -1911.5634      -1489.5214
  21293453.9594  -15209584.55548 -11843052.02247  21293454.5934   21293453.6024
      1825.7534       1422.6684
  22260546.0764  -16934441.43048 -13190658.48647  22260545.7974   22260549.7454
      1955.9434       1524.1064
  21794546.2994  -20051720.09048 -15580287.97847  21794546.4754   21794548.2704
     -3101.7814      -2416.9614
  22519400.5404  -14522983.60447 -11314255.79847  22519399.2804   22519402.5224
        49.0514         38.2314
  23382540.3234   -3258738.67347  -2527971.35146  23382539.9014   23382546.3274
      2826.5364       2202.4964
 06  6 25 17 33  0.0000000  0 10G 1G18G 9G14G15G22G30G21G 5G25
  24307989.2354   -4061671.22446  -3162210.41546  24307987.2044   24307993.1904
      1111.5214        866.1164
  20945724.1904  -24851354.11548 -19350425.30348  20945723.9494   20945725.6544
       -75.3334        -58.6904
  23647582.2584   -9742037.38247  -7577658.54446  23647579.6684   23647582.3954
     -3615.1154      -2816.9724
  22200610.8924  -13296460.60048 -10312135.32647  22200610.2484   22200613.0674
       231.1624        180.1464
  20520962.0494  -23571646.60748 -18317171.20147  20520961.1964   20520965.2494
     -1928.0694      -1502.3844
  21283049.4524  -15264262.25348 -11885658.03447  21283049.0294   21283049.6174
      1820.0944       1418.2584
  22249405.2814  -16992979.39548 -13236272.45947  22249406.4804   22249409.3254
      1946.8724       1517.0524
  21812281.7464  -19958523.60048 -15507667.40447  21812280.3034   21812283.1064
     -3110.7204      -2423.9334
  22519166.6794  -14524209.91147 -11315211.36947  22519166.5384   22519169.4214
        33.0504         25.7484
  23366434.4354   -3343375.43547  -2593921.99846  23366434.4994   23366439.5034
      2815.9364       2194.2334
 06  6 25 17 33 30.0000000  0 10G 1G18G 9G14G15G22G30G21G 5G25
  24301653.3924   -4094967.31146  -3188155.40846  24301653.2684   24301658.0514
      1108.4914        863.7624
  20946191.0864  -24848901.65048 -19348514.31948  20946190.6994   20946192.1994
       -87.7884        -68.4084
  23668228.6714   -9633525.52047  -7493103.86946  23668230.0634   23668233.3614
     -3618.3304      -2819.4824
  22199295.4494  -13303375.45548 -10317523.53247  22199294.9214   22199296.3194
       230.4474        179.5954
  20532016.5274  -23513552.70748 -18271903.27547  20532015.5224   20532020.0694
     -1944.2824      -1515.0214
  21272675.9644  -15318773.08148 -11928134.01747  21272676.2544   21272676.2524
      1814.4664       1413.8684
  22238317.3074  -17051246.42748 -13281675.33047  22238318.4644   22238321.3634
      1938.0554       1510.1524
  21830065.2954  -19865065.78748 -15434843.20047  21830065.1724   21830067.7104
     -3119.3544      -2430.6724
  22519025.3564  -14524955.09747 -11315792.03047  22519024.0164   22519028.8434
        16.9754         13.2294
  23350385.7314   -3427706.87647  -2659634.73646  23350386.2434   23350392.2674
      2806.1974       2186.6484
 06  6 25 17 34  0.0000000  0 10G 1G18G 9G14G15G22G30G21G 5G25
  24295332.0314   -4128179.88546  -3214035.30446  24295333.5124   24295338.5214
      1105.9464        861.7694
  20946729.4884  -24846072.68848 -19346309.95148  20946729.3454   20946730.9154
      -100.4344        -78.2514
  23688897.4954   -9524916.08647  -7408473.22846  23688898.1734   23688900.8874
     -3621.9284      -2822.2754
  22197984.5294  -13310261.08648 -10322888.96247  22197984.8184   22197985.9064
       229.0944        178.4994
  20543164.6094  -23454967.92148 -18226252.83547  20543164.2654   20543168.2034
     -1960.7574      -1527.8664
  21262335.0714  -15373112.37448 -11970476.33047  21262335.8474   21262335.5754
      1808.5784       1409.2794
  22227282.5144  -17109237.45848 -13326863.14047  22227283.6544   22227286.6884
      1928.5854       1502.7994
  21847899.4684  -19771347.09848 -15361815.72447  21847899.5334   21847901.8664
     -3128.1554      -2437.5124
  22518975.7884  -14525215.51747 -11315994.95947  22518975.3504   22518978.7064
          .8594           .6624
  23334398.6854   -3511728.93347  -2725106.39746  23334397.7394   23334402.8914
      2795.7514       2178.5034
 06  6 25 17 34 30.0000000  0 10G 1G18G 9G14G15G22G30G21G 5G25
  24289027.7524   -4161311.91546  -3239852.46646  24289028.2934   24289033.9624
      1102.9174        859.4114
  20947339.3864  -24842867.38748 -19343812.33948  20947338.8894   20947341.0524
      -112.9304        -87.9994
  23709583.0704   -9416214.37247  -7323770.63946  23709582.4834   23709583.8414
     -3624.7834      -2824.5004
  22196679.7634  -13317120.20348 -10328233.74147  22196679.8334   22196682.5654
       228.4034        177.9644
  20554405.8414  -23395896.37648 -18180223.10947  20554405.0134   20554408.9294
     -1977.0734      -1540.5844
  21252027.9164  -15427279.74248 -12012684.68347  21252028.6894   21252028.3174
      1802.9224       1404.8754
  22216300.1644  -17166950.91348 -13371834.64547  22216300.2854   22216303.5254
      1919.3834       1495.6364
  21865782.2434  -19677372.53648 -15288588.85747  21865781.8604   21865784.4354
     -3136.5204      -2444.0274
  22519019.3294  -14524991.69447 -11315820.54947  22519016.8214   22519021.8634
       -15.4414        -12.0504
  23318465.8494   -3595441.74747  -2790337.07046  23318467.0134   23318472.7034
      2784.9454       2170.0854
 06  6 25 17 35  0.0000000  0 10G 1G18G 9G14G15G22G30G21G 5G25
  24282739.0914   -4194361.04346  -3265605.01046  24282737.7804   24282744.9344
      1099.8974        857.0624
  20948021.9184  -24839280.34448 -19341017.26148  20948021.6014   20948023.1834
      -125.9784        -98.1644
  23730284.8134   -9307419.40547  -7238995.38746  23730284.2494   23730287.8454
     -3628.1454      -2827.1174
  22195379.4504  -13323950.52748 -10333556.07547  22195379.3554   22195382.4984
       227.1484        176.9994
  20565739.4604  -23336337.11748 -18133813.33847  20565739.0894   20565742.9774
     -1993.5304      -1553.4034
  21241754.3564  -15481269.29048 -12054754.46947  21241754.5574   21241754.3264
      1796.5624       1399.9254
  22205371.3474  -17224380.63248 -13416585.05347  22205371.4934   22205375.5534
      1909.6034       1487.9974
  21883714.5114  -19583141.56348 -15215162.19047  21883712.9744   21883715.3654
     -3145.3704      -2450.9514
  22519153.8514  -14524278.89247 -11315265.11447  22519154.0784   22519156.3764
       -32.2454        -25.1174
  23302597.8594   -3678839.88647  -2855322.56046  23302596.5274   23302602.4264
      2774.3864       2161.8514
 06  6 25 17 35 30.0000000  0 10G 1G18G 9G14G15G22G30G21G 5G25
  24276465.4694   -4227331.24046  -3291296.02646  24276464.3114   24276469.8054
      1098.3604        855.8574
  20948776.9844  -24835313.05248 -19337925.88448  20948776.7494   20948778.3934
      -138.2044       -107.7024
  23751005.3414   -9198536.84047  -7154151.86846  23751004.4704   23751008.6064
     -3630.5644      -2829.0124
  22194084.8594  -13330755.93048 -10338858.99047  22194083.7024   22194086.1524
       226.9144        176.8154
  20577165.7244  -23276295.53448 -18087027.74147  20577164.7124   20577168.3834
     -2009.0144      -1565.4624
  21231513.9744  -15535081.46148 -12096686.04547  21231513.9694   21231514.1314
      1791.3484       1395.8634
  22194496.9734  -17281526.05148 -13461113.93847  22194497.3294   22194499.0044
      1900.7724       1481.1184
  21901693.4664  -19488660.19248 -15141540.41647  21901692.3474   21901694.6484
     -3153.1294      -2456.9934
  22519383.0384  -14523078.70847 -11314329.91547  22519383.8764   22519386.0394
       -47.8004        -37.2444
  23286786.3924   -3761924.72547  -2920063.90546  23286786.6554   23286791.6094
      2764.6744       2154.2824
 06  6 25 17 36  0.0000000  0 10G 1G18G 9G14G15G22G30G21G 5G25
  24270204.7364   -4260225.08346  -3316927.56846  24270203.6024   24270209.0794
      1095.1034        853.3334
  20949604.5314  -24830965.23148 -19334537.99648  20949604.5534   20949605.7534
      -151.3204       -117.9154
  23771739.5054   -9089570.72147  -7069243.29346  23771741.0534   23771743.0444
     -3633.5014      -2831.3064
  22192794.0394  -13337538.63748 -10344144.22747  22192794.4884   22192795.2184
       225.6314        175.8204
  20588681.8674  -23215775.64348 -18039869.43247  20588681.6004   20588685.1044
     -2025.3304      -1578.1774
  21221307.7274  -15588715.43348 -12138478.76347  21221307.8744   21221307.9394
      1784.7414       1390.7124
  22183677.2524  -17338385.41448 -13505419.91347  22183678.2454   22183680.7064
      1890.4924       1473.1174
  21919718.4954  -19393933.00248 -15067727.09947  21919718.5904   21919721.6174
     -3161.6404      -2463.6364
  22519703.9324  -14521391.29747 -11313015.05447  22519703.6924   22519706.9644
       -64.5474        -50.3094
  23271036.4244   -3844695.91847  -2984560.87346  23271036.0154   23271040.9194
      2753.4774       2145.5614
 06  6 25 17 36 30.0000000  0 10G 1G18G 9G14G15G22G30G21G 5G25
  24263961.3724   -4293039.93546  -3342497.56246  24263961.4534   24263965.2144
      1093.0504        851.7234
  20950504.9714  -24826231.29548 -19330849.23448  20950505.2664   20950506.8264
      -163.7984       -127.6334
  23792491.1084   -8980519.96247  -6984268.70546  23792491.2774   23792495.0854
     -3635.8234      -2833.1064
  22191508.6244  -13344296.00348 -10349409.71647  22191508.5074   22191510.3154
       225.5464        175.7534
  20600289.5094  -23154776.34048 -17992337.55747  20600289.0824   20600293.0134
     -2040.6974      -1590.1574
  21211136.6074  -15642164.89448 -12180127.71048  21211137.1894   21211137.4504
      1779.1864       1386.3734
  22172912.8464  -17394951.93148 -13549497.70947  22172913.4674   22172915.9294
      1881.1454       1465.8144
  21937792.4184  -19298959.37348 -14993721.74547  21937791.5654   21937794.9694
     -3169.1004      -2469.4384
  22520118.3424  -14519211.76047 -11311316.72547  22520117.4284   22520121.3674
       -80.2104        -62.5244
  23255346.7544   -3927148.17247  -3048809.31146  23255345.9004   23255350.6754
      2743.1024       2137.4824
 06  6 25 17 37  0.0000000  0 10G 1G18G 9G14G15G22G30G21G 5G25
  24257731.1154   -4325779.02946  -3368008.51546  24257729.9324   24257735.2484
      1088.9034        848.4904
  20951479.3614  -24821112.17248 -19326860.32948  20951478.9544   20951480.7754
      -178.2944       -138.9364
  23813258.2184   -8871389.01347  -6899231.70246  23813257.7634   23813261.6934
     -3640.4434      -2836.7074
  22190226.5144  -13351030.92248 -10354657.70347  22190226.2084   22190228.5304
       222.9404        173.7004
  20611987.7874  -23093302.32948 -17944435.78247  20611987.0284   20611990.9244
     -2058.0834      -1603.7004
  21201001.4174  -15695429.55148 -12221632.65048  21201001.1704   21201000.9614
      1771.3074       1380.2394
  22162204.1104  -17451225.16248 -13593346.95747  22162203.8494   22162206.5234
      1869.7794       1456.9604
  21955910.4394  -19203744.43048 -14919528.35747  21955911.4254   21955913.7514
     -3178.9894      -2477.1274
  22520626.8784  -14516541.03747 -11309235.64447  22520626.7034   22520630.3204
       -98.4694        -76.7514
  23239716.4204   -4009281.82047  -3112809.48246  23239715.1794   23239721.9894
      2730.8404       2127.9254
 06  6 25 17 37 30.0000000  0 10G 1G18G 9G14G15G22G30G21G 5G25
  24251515.0544   -4358446.98346  -3393464.02746  24251514.7124   24251519.4574
      1088.5854        848.2554
  20952526.7944  -24815609.50348 -19322572.56648  20952526.1724   20952527.7994
      -188.9874       -147.2434
  23834040.9884   -8762183.73547  -6814136.72746  23834041.4814   23834043.3724
     -3640.3984      -2836.6754
  22188948.7214  -13357748.10248 -10359891.88347  22188948.5164   22188951.9304
       224.5304        174.9574
  20623775.0564  -23031359.56348 -17896168.74547  20623774.4144   20623778.3644
     -2071.6314      -1614.2384
  21190899.2224  -15748510.67148 -12262994.58148  21190899.6234   21190900.3564
      1767.2194       1377.0664
  22151550.9694  -17507204.82548 -13636967.44147  22151552.1954   22151555.0374
      1861.8814       1450.8364
  21974075.0514  -19108294.75448 -14845152.06447  21974075.0364   21974077.3634
     -3184.6124      -2481.5054
  22521227.2904  -14513381.49047 -11306773.66747  22521227.8894   22521230.6094
      -112.7244        -87.8354
  23224147.6074   -4091098.74247  -3176562.86546  23224147.0364   23224152.2394
      2722.7414       2121.6184
 06  6 25 17 38  0.0000000  0 10G 1G18G 9G14G15G22G30G21G 5G25
  24245311.1404   -4391042.26546  -3418862.92646  24245312.1684   24245318.2744
      1084.5104        845.0654
  20953647.1084  -24809719.09348 -19317982.65848  20953646.9854   20953649.0644
      -203.7584       -158.7644
  23854835.4224   -8652904.69747  -6728984.29446  23854835.1244   23854838.1774
     -3644.8864      -2840.1684
  22187674.3664  -13364445.73148 -10365110.81947  22187673.5214   22187676.2844
       221.9624        172.9534
  20635651.4754  -22968947.72348 -17847536.18647  20635651.0884   20635655.2814
     -2089.0754      -1627.8534
  21180834.5114  -15801403.10548 -12304209.47948  21180834.5864   21180834.5144
      1759.0054       1370.6524
  22140956.0684  -17562885.37348 -13680354.86647  22140956.1254   22140959.6074
      1850.0214       1441.5764
  21992282.9864  -19012610.66747 -14770593.10747  21992281.6024   21992285.5814
     -3194.1594      -2488.9234
  22521922.2234  -14509729.27547 -11303927.78347  22521921.3454   22521925.2774
      -130.8674       -101.9674
  23208640.5494   -4172594.61347  -3240066.07046  23208638.5324   23208643.7094
      2710.3064       2111.9194
 06  6 25 17 38 30.0000000  0 10G 1G18G 9G14G15G22G30G21G 5G25
  24239122.9344   -4423565.75846  -3444205.87146  24239123.8094   24239126.6884
      1083.0464        843.9344
  20954842.7954  -24803439.12448 -19313089.19848  20954842.2154   20954844.0824
      -215.6504       -168.0434
  23875646.0424   -8543553.54847  -6643775.69546  23875644.7974   23875647.2724
     -3646.0644      -2841.0834
  22186403.5354  -13371124.35348 -10370314.94947  22186403.5864   22186405.7254
       222.2654        173.1904
  20647617.3544  -22906069.24348 -17798540.01647  20647616.6224   20647620.7554
     -2103.5924      -1639.1594
  21170806.3474  -15854103.87948 -12345275.03348  21170805.9304   21170806.2994
      1753.5074       1366.3624
  22130417.4404  -17618263.42248 -13723506.57847  22130418.2504   22130420.4644
      1840.9544       1434.5184
  22010535.0904  -18916694.66347 -14695853.44447  22010534.1324   22010538.7904
     -3201.3384      -2494.5454
  22522711.5624  -14505582.93247 -11300696.87847  22522712.0054   22522713.9444
      -146.4374       -114.0974
  23193191.8744   -4253767.64947  -3303317.71546  23193192.5304   23193197.1114
      2700.2484       2104.0784
 06  6 25 17 39  0.0000000  0 10G 1G18G 9G14G15G22G30G21G 5G25
  24232946.2964   -4456016.80546  -3469492.34646  24232946.0444   24232952.3444
      1081.7454        842.9224
  20956112.1164  -24796766.67148 -19307889.91448  20956112.2744   20956113.5334
      -227.9244       -177.6034
  23896467.4094   -8434131.41047  -6558511.69946  23896467.5284   23896470.7334
     -3647.4254      -2842.1454
  22185136.0614  -13377783.41848 -10375503.84347  22185135.7824   22185138.2874
       222.4944        173.3834
  20659670.8614  -22842725.17148 -17749181.05447  20659670.4434   20659675.1374
     -2118.2314      -1650.5634
  21160815.4404  -15906609.41148 -12386188.45848  21160815.1044   21160815.1034
      1747.8664       1361.9774
  22119938.0844  -17673334.57148 -13766419.13847  22119938.9864   22119940.8514
      1831.6154       1427.2244
  22028830.9714  -18820548.82847 -14620934.67247  22028830.8844   22028833.5014
     -3207.5934      -2499.4444
  22523595.1454  -14500939.86947 -11297078.91747  22523594.7774   22523598.5384
      -162.2164       -126.3694
  23177807.3594   -4334614.59847  -3366315.27946  23177806.4724   23177812.9274
      2690.5304       2096.5094
 06  6 25 17 39 30.0000000  0 10G 1G18G 9G14G15G22G30G21G 5G25
  24226785.3974   -4488398.61546  -3494724.89946  24226786.1104   24226790.0894
      1078.2054        840.1594
  20957456.6274  -24789701.67748 -19302384.74148  20957456.1314   20957458.1784
      -242.5024       -188.9584
  23917302.2534   -8324642.94047  -6473196.12646  23917301.8754   23917305.9034
     -3651.0954      -2845.0064
  22183872.6254  -13384425.80748 -10380679.73847  22183871.4214   22183873.4584
       220.7574        172.0344
  20671812.8194  -22778920.13048 -17699462.88447  20671812.5994   20671816.1394
     -2134.8974      -1663.5504
  21150860.5274  -15958919.20648 -12426949.35148  21150860.5864   21150861.2054
      1740.0654       1355.8924
  22109516.5034  -17728098.04448 -13809091.95647  22109517.3924   22109521.1894
      1819.8574       1418.0704
  22047169.6184  -18724178.12947 -14545840.70347  22047168.2104   22047172.8514
     -3216.5804      -2506.4424
  22524573.2944  -14495800.87947 -11293074.51647  22524573.6454   22524576.4514
      -180.2254       -140.4164
  23162484.9594   -4415135.68947  -3429058.91546  23162484.2824   23162489.3744
      2678.3344       2087.0084
 06  6 25 17 40  0.0000000  0 10G 1G18G 9G14G15G22G30G21G 5G25
  24220636.6144   -4520711.60246  -3519903.81346  24220636.2854   24220640.9734
      1075.2974        837.8834
  20958876.2774  -24782242.24048 -19296572.22148  20958875.5434   20958877.5124
      -255.3974       -199.0134
  23938150.2004   -8215090.01047  -6387830.27246  23938148.9304   23938152.5574
     -3653.2164      -2846.6604
  22182611.5434  -13391051.85148 -10385842.89547  22182611.3584   22182612.8724
       220.4154        171.7554
  20684042.1144  -22714656.19048 -17649387.13647  20684041.5304   20684045.8594
     -2149.7934      -1675.1624
  21140944.0604  -16011029.78048 -12467555.01248  21140944.1104   21140944.3754
      1733.6454       1350.8934
  22099155.6514  -17782549.24848 -13851521.44547  22099155.8934   22099159.5064
      1809.6484       1410.1114
  22065550.8364  -18627584.84547 -14470573.26947  22065550.4134   22065553.7144
     -3223.6374      -2511.9334
  22525646.6414  -14490164.26547 -11288682.37147  22525644.4324   22525648.3304
      -196.3144       -152.9824
  23147225.3954   -4495328.61447  -3491546.84846  23147224.4074   23147228.1364
      2667.3944       2078.4824
 06  6 25 17 40 30.0000000  0 10G 1G18G 9G14G15G22G30G21G 5G25
  24214499.2914   -4552962.38346  -3545034.28046  24214499.9774   24214503.2804
      1072.9724        836.0734
  20960370.1184  -24774391.82648 -19290455.04248  20960369.6734   20960371.3934
      -269.3144       -209.8544
  23959006.6294   -8105480.53947  -6302420.32246  23959006.3364   23959010.8254
     -3655.5364      -2848.4734
  22181351.8684  -13397667.71848 -10390998.12347  22181352.2874   22181353.0994
       219.2664        170.8414
  20696356.9444  -22649941.27348 -17598959.97847  20696355.9734   20696359.8034
     -2165.6864      -1687.5604
  21131065.2844  -16062944.30448 -12508007.91048  21131065.2054   21131065.4464
      1726.1854       1345.0534
  22088851.8984  -17836691.17348 -13893709.94747  22088852.8114   22088856.5844
      1798.4784       1401.4034
  22083972.3464  -18530777.33247 -14395138.90247  22083971.6684   22083974.5014
     -3231.4234      -2517.9994
  22526812.5454  -14484034.41947 -11283905.86747  22526812.0014   22526813.8394
      -213.4684       -166.3424
  23132025.6304   -4575197.34747  -3553782.16446  23132025.9804   23132031.5854
      2655.7084       2069.3714
 06  6 25 17 41  0.0000000  0 10G 1G18G 9G14G15G22G30G21G 5G25
  24208374.1274   -4585142.97846  -3570110.04346  24208373.7634   24208380.4804
      1072.2984        835.5534
  20961940.0044  -24766140.62648 -19284025.56148  20961940.2944   20961941.6594
      -281.1514       -219.0804
  23979876.1084   -7995807.77647  -6216961.12646  23979877.6884   23979881.0374
     -3656.1624      -2848.9484
  22180097.3514  -13404264.70648 -10396138.64247  22180096.2624   22180099.1724
       220.4024        171.7594
  20708758.4164  -22584769.10548 -17548176.51847  20708758.4924   20708762.0434
     -2179.2174      -1698.0764
  21121225.3434  -16114651.30848 -12548299.10948  21121226.2064   21121226.0564
      1720.6634       1340.7924
  22078611.5784  -17890511.26848 -13935647.67147  22078611.4404   22078614.4404
      1789.2394       1394.2084
  22102436.6634  -18433749.54947 -14319532.90847  22102435.8124   22102440.1704
     -3237.1554      -2522.4674
  22528074.9074  -14477401.19247 -11278737.13247  22528073.2674   22528076.8554
      -229.0694       -178.5054
  23116892.1794   -4654731.18447  -3615756.52746  23116891.3144   23116896.9484
      2646.0734       2061.8694
 06  6 25 17 41 30.0000000  0 10G 1G18G 9G14G15G22G30G21G 5G25
  24202263.6754   -4617260.63646  -3595136.74346  24202263.0044   24202266.8484
      1068.8004        832.8394
  20963585.8424  -24757493.15148 -19277287.29148  20963585.8194   20963586.7974
      -295.9174       -230.5824
  24000757.3854   -7886080.67147  -6131459.54946  24000757.2434   24000761.4964
     -3659.4054      -2851.4894
  22178843.7244  -13410850.85148 -10401270.70447  22178843.6754   22178845.9324
       218.3634        170.1854
  20721245.9834  -22519148.48948 -17497043.62247  20721245.0634   20721248.9654
     -2195.7274      -1710.9414
  21111424.8024  -16166154.52048 -12588431.50048  21111424.7604   21111425.4834
      1712.4774       1334.4074
  22068430.1284  -17944012.78848 -13977337.14847  22068430.2514   22068432.7244
      1777.0864       1384.7524
  22120940.2144  -18336510.80047 -14243762.51247  22120940.0204   22120943.3754
     -3245.5124      -2528.9574
  22529431.6094  -14470269.79447 -11273180.20447  22529431.4114   22529434.4844
      -246.9754       -192.4534
  23101819.7394   -4733934.86247  -3677473.59246  23101818.3764   23101824.4634
      2633.5634       2052.1244
 06  6 25 17 42  0.0000000  0 10G 1G18G 9G14G15G22G30G21G 5G25
  24196162.8574   -4649316.33246  -3620115.17646  24196163.9054   24196169.2764
      1067.5554        831.8544
  20965307.1654  -24748447.58748 -19270238.82048  20965306.4574   20965308.3654
      -308.2324       -240.1854
  24021646.1954   -7776301.53146  -6045917.39946  24021647.3004   24021651.4014
     -3660.1134      -2852.0354
  22177592.0024  -13417426.53248 -10406394.62847  22177591.9594   22177593.1064
       218.9434        170.5804
  20733817.9134  -22453081.93348 -17445563.23647  20733817.6774   20733821.4154
     -2209.5444      -1721.7104
  21101663.2424  -16217451.39748 -12628403.11448  21101663.5174   21101664.1264
      1706.3454       1329.6194
  22058310.9344  -17997192.81248 -14018776.11747  22058310.4714   22058313.7964
      1766.9694       1376.8504
  22139483.6184  -18239064.02447 -14167830.05647  22139484.0394   22139488.5414
     -3251.6004      -2533.6964
  22530882.9724  -14462639.01847 -11267234.15747  22530881.6284   22530887.9864
      -262.6474       -204.6604
  23086809.7084   -4812806.51547  -3738931.95546  23086810.1434   23086815.7254
      2623.4624       2044.2574
 06  6 25 17 42 30.0000000  0 10G 1G18G 9G14G15G22G30G21G 5G25
  24190075.5604   -4681307.47746  -3645043.31146  24190074.8134   24190081.4114
      1064.6914        829.6324
  20967105.1004  -24738998.43248 -19262875.86948  20967104.7204   20967106.7864
      -322.0824       -250.9744
  24042548.8764   -7666469.07847  -5960333.73946  24042549.3714   24042552.8884
     -3662.3374      -2853.7674
  22176343.2994  -13423988.80248 -10411508.10347  22176342.3684   22176343.8514
       218.3794        170.1614
  20746475.3304  -22386568.56548 -17393734.69347  20746474.7484   20746478.6624
     -2224.8324      -1733.6394
  21091942.6884  -16268535.97748 -12668209.30148  21091942.7194   21091942.8414
      1699.2094       1324.0574
  22048252.5774  -18050044.67548 -14059959.37347  22048252.5014   22048255.4424
      1755.9854       1368.2944
  22158066.9314  -18141408.66647 -14091735.06047  22158067.2864   22158069.2804
     -3258.9794      -2539.4724
  22532431.5434  -14454504.40047 -11260895.50947  22532429.9694   22532435.6244
      -279.4774       -217.7694
  23071865.8554   -4891340.99247  -3800127.59046  23071865.7704   23071870.8834
      2612.0294       2035.3464
 06  6 25 17 43  0.0000000  0 10G 1G18G 9G14G15G22G30G21G 5G25
  24183999.4104   -4713243.17746  -3669928.24146  24183999.0304   24184003.2904
      1062.0714        827.5794
  20968979.1264  -24729152.65448 -19255203.85448  20968978.4534   20968980.6404
      -336.0484       -261.8614
  24063455.0444   -7556593.77447  -5874716.66746  24063454.9784   24063461.7434
     -3664.1604      -2855.1894
  22175095.6054  -13430546.39748 -10416617.91347  22175095.0684   22175097.1674
       217.2874        169.3114
  20759214.8634  -22319619.02248 -17341566.26547  20759214.0204   20759218.7984
     -2240.2154      -1745.6314
  21082261.0264  -16319413.46848 -12707854.12148  21082260.9514   21082261.2504
      1691.2174       1317.8244
  22038256.5184  -18102572.69048 -14100890.28147  22038256.6654   22038261.0204
      1744.3394       1359.2174
  22176687.9594  -18043555.81447 -14015486.15747  22176688.3094   22176690.9124
     -3266.1464      -2545.0494
  22534074.2544  -14445872.86547 -11254169.64747  22534074.1604   22534076.8244
      -297.0614       -231.4744
  23056984.2254   -4969544.78447  -3861065.54746  23056983.7094   23056989.4034
      2599.7084       2025.7364
 06  6 25 17 43 30.0000000  0 10G 1G18G 9G14G15G22G30G21G 5G25
  24177933.4684   -4745113.13447  -3694761.94246  24177933.7594   24177939.0364
      1061.1084        826.8344
  20970930.4594  -24718897.23148 -19247212.64348  20970930.0604   20970931.8344
      -348.6384       -271.6694
  24084374.5424   -7446666.22346  -5789058.93946  24084375.9784   24084377.0474
     -3664.7374      -2855.6454
  22173850.7594  -13437088.92148 -10421716.00347  22173849.9754   22173851.7724
       217.9634        169.8544
  20772039.9204  -22252224.50048 -17289051.11147  20772039.4534   20772043.0684
     -2253.8094      -1756.2184
  21072621.3984  -16370069.96148 -12747326.73148  21072621.6384   21072621.8374
      1684.8474       1312.8714
  22028325.8904  -18154763.05548 -14141558.08047  22028325.9004   22028328.0434
      1734.2014       1351.3414
  22195348.1744  -17945496.98447 -13939076.76647  22195348.4314   22195350.9544
     -3272.0074      -2549.6144
  22535813.9384  -14436732.02247 -11247046.93447  22535813.2824   22535817.5214
      -313.3214       -244.1644
  23042166.8364   -5047404.88047  -3921735.68246  23042167.9754   23042172.0734
      2589.5724       2017.8534
 06  6 25 17 44  0.0000000  0 10G 1G18G 9G14G15G22G30G21G 5G25
  24171879.4794   -4776934.79447  -3719558.00846  24171878.3594   24171882.8974
      1059.5204        825.6044
  20972957.3394  -24708247.10448 -19238913.85848  20972957.0114   20972958.1664
      -362.0914       -282.1544
  24105301.9494   -7336705.82547  -5703375.52346  24105299.5134   24105304.0444
     -3666.4564      -2856.9764
  22172606.2334  -13443633.26648 -10426815.49547  22172606.1344   22172607.0494
       217.5804        169.5254
  20784945.7894  -22184403.98748 -17236204.00847  20784945.3794   20784949.4034
     -2268.3034      -1767.5054
  21063021.4284  -16420519.36548 -12786637.96948  21063021.2804   21063021.1584
      1677.5494       1307.1824
  22018456.5444  -18206628.76148 -14181972.91147  22018456.1074   22018459.0834
      1722.8304       1342.4684
  22214043.7894  -17847251.47047 -13862521.91247  22214043.9534   22214048.1804
     -3278.4904      -2554.6814
  22537647.7644  -14427097.39947 -11239539.45547  22537647.2664   22537649.9034
      -330.0484       -257.1844
  23027413.9314   -5124936.10147  -3982149.54146  23027413.3674   23027419.4514
      2578.3614       2009.1054
 06  6 25 17 44 30.0000000  0 10G 1G18G 9G14G15G22G30G21G 5G25
  24165834.7774   -4808695.27547  -3744306.40846  24165833.2984   24165838.8914
      1057.7134        824.1814
  20975062.3154  -24697186.72548 -19230295.40148  20975061.6454   20975063.2944
      -375.6264       -292.6834
  24126232.5084   -7226701.00547  -5617657.54046  24126232.4014   24126239.3464
     -3667.4034      -2857.7144
  22171361.4394  -13450166.54648 -10431906.37747  22171362.4424   22171364.0154
       217.5074        169.4734
  20797935.0094  -22116146.31348 -17183016.26447  20797934.2824   20797938.2374
     -2282.7184      -1778.7324
  21053463.3814  -16470745.44148 -12825775.19148  21053463.7584   21053463.7594
      1670.3854       1301.6084
  22008651.2144  -18258152.60148 -14222121.36247  22008651.4824   22008654.1384
      1711.5094       1333.6544
  22232776.7024  -17748808.54847 -13785813.22547  22232776.5984   22232781.0684
     -3284.5834      -2559.4054
  22539577.9904  -14416954.14447 -11231635.63047  22539578.9314   22539580.0294
      -346.8184       -270.2334
  23012724.5954   -5202123.16647  -4042295.23446  23012725.7714   23012730.9124
      2567.0514       2000.3014
 06  6 25 17 45  0.0000000  0 10G 1G18G 9G14G15G22G30G21G 5G25
  24159799.5724   -4840400.15546  -3769011.46646  24159801.5654   24159806.6374
      1056.3634        823.1354
  20977244.0624  -24685719.35548 -19221359.81348  20977244.0314   20977245.4754
      -389.0184       -303.1274
  24147175.7714   -7116657.96046  -5531909.83746  24147175.4244   24147176.8504
     -3668.7634      -2858.7754
  22170119.8664  -13456694.02248 -10436992.73447  22170120.5314   22170120.4484
       217.4554        169.4594
  20811005.3954  -22047458.92948 -17129493.68247  20811005.0854   20811008.9164
     -2296.6774      -1789.6124
  21043948.1624  -16520750.11048 -12864739.88548  21043948.1444   21043948.1474
      1663.0944       1295.9284
  21998910.7134  -18309336.73648 -14262005.09647  21998911.0984   21998914.2714
      1700.3494       1324.9374
  22251546.4944  -17650175.50547 -13708956.37247  22251547.4904   22251549.6244
     -3290.7754      -2564.2344
  22541603.5774  -14406305.92947 -11223338.33847  22541602.2464   22541606.2744
      -363.4414       -283.1884
  22998101.5254   -5278968.75347  -4102174.84046  22998100.8734   22998106.5454
      2555.6044       1991.3824
 06  6 25 17 45 30.0000000  0 10G 1G18G 9G14G15G22G30G21G 5G25
  24153778.3044   -4872050.46846  -3793674.02146  24153776.4744   24153782.8694
      1054.1064        821.3734
  20979503.6014  -24673843.56248 -19212105.97248  20979503.9694   20979505.1874
      -402.6184       -313.7304
  24168121.9924   -7006579.77346  -5446134.63846  24168122.6094   24168124.3294
     -3669.8384      -2859.6054
  22168878.6934  -13463216.35848 -10442075.07647  22168878.2714   22168880.4654
       217.2894        169.2924
  20824158.0514  -21978344.36048 -17075638.23247  20824157.3664   20824161.4014
     -2310.6694      -1800.5034
  21034475.1444  -16570530.63448 -12903529.91648  21034475.0394   21034475.0844
      1655.6004       1290.0714
  21989236.5024  -18360178.00048 -14301621.66347  21989237.1884   21989239.7544
      1689.3164       1316.3724
  22270351.2014  -17551355.48047 -13631953.83947  22270351.2384   22270355.2184
     -3297.2294      -2569.2564
  22543726.2824  -14395151.78147 -11214646.80747  22543726.0404   22543729.7684
      -380.1694       -296.2404
  22983544.1974   -5355471.59447  -4161787.37646  22983544.1134   22983548.6484
      2544.1434       1982.4414
 06  6 25 17 46  0.0000000  0 10G 1G18G 9G14G15G22G30G21G 5G25
  24147766.3554   -4903647.30346  -3818294.89146  24147766.3174   24147770.8824
      1052.7804        820.3394
  20981841.8074  -24661557.95048 -19202532.78848  20981841.6434   20981843.6304
      -415.9814       -324.1394
  24189073.8654   -6896468.68346  -5360333.80546  24189074.2314   24189077.6944
     -3670.3244      -2859.9874
  22167638.3404  -13469734.38848 -10447154.07547  22167638.8334   22167641.5964
       217.5804        169.5184
  20837390.6864  -21908805.72648 -17021452.33647  20837390.2614   20837394.4534
     -2324.7384      -1811.4844
  21025044.8754  -16620084.97348 -12942143.70248  21025045.2074   21025045.2304
      1648.4484       1284.5114
  21979627.4584  -18410673.19348 -14340968.56747  21979628.2414   21979631.2034
      1677.7394       1307.3404
  22289191.5374  -17452351.61847 -13554808.05447  22289190.9134   22289194.4914
     -3302.7704      -2573.5924
  22545945.7084  -14383491.06347 -11205560.56147  22545946.0374   22545948.5054
      -396.9204       -309.2884
  22969052.4174   -5431630.28147  -4221131.74446  22969051.7274   22969056.2544
      2533.0224       1973.7864
 06  6 25 17 46 30.0000000  0 10G 1G18G 9G14G15G22G30G21G 5G25
  24141764.0144   -4935191.36747  -3842874.64246  24141761.5904   24141767.9134
      1050.8844        818.8674
  20984258.1084  -24648860.71648 -19192638.86348  20984258.1914   20984259.3644
      -429.8184       -334.9284
  24210034.4854   -6786326.17547  -5274508.59946  24210034.4554   24210038.6284
     -3671.5284      -2860.9284
  22166399.0594  -13476248.52548 -10452230.04047  22166397.9094   22166400.9294
       217.2694        169.3024
  20850703.6614  -21838845.31348 -16966937.78547  20850703.7994   20850707.3004
     -2338.5944      -1822.2774
  21015659.4394  -16669409.94048 -12980578.75748  21015658.9574   21015659.0064
      1640.5084       1278.3214
  21970085.7604  -18460818.94348 -14380043.17347  21970085.6254   21970089.0034
      1665.6064       1297.8744
  22308065.1964  -17353166.33747 -13477520.90146  22308065.6464   22308067.4474
     -3308.8384      -2578.2874
  22548261.4584  -14371322.55647 -11196078.61947  22548261.6054   22548263.6004
      -413.9094       -322.5444
  22954624.6404   -5507442.96347  -4280206.48246  22954624.2144   22954629.9754
      2521.5184       1964.8324
 06  6 25 17 47  0.0000000  0 10G 1G18G 9G14G15G22G30G21G 5G25
  24135768.9994   -4966687.79547  -3867417.28146  24135770.0564   24135774.0314
      1049.3144        817.6494
  20986751.9604  -24635754.91948 -19182426.57748  20986751.8634   20986753.5124
      -443.2464       -345.3864
  24230997.9944   -6676159.43647  -5188664.45046  24230999.6474   24231000.1434
     -3671.8824      -2861.2024
  22165159.5504  -13482763.43648 -10457306.60347  22165158.5834   22165159.9124
       217.7024        169.6374
  20864095.5364  -21768469.99448 -16912099.92047  20864094.9134   20864099.5044
     -2352.3144      -1832.9534
  21006316.1144  -16718507.30148 -13018836.45148  21006316.2684   21006316.6084
      1633.1164       1272.5684
  21960609.5994  -18510616.27448 -14418846.28947  21960609.3744   21960611.7124
      1654.5214       1289.2684
  22326973.7374  -17253806.91747 -13400098.04647  22326971.1624   22326976.7564
     -3314.3784      -2582.6264
  22550672.9464  -14358649.61547 -11186203.62047  22550671.1844   22550674.7954
      -430.5534       -335.4804
  22940263.8644   -5582912.24847  -4339013.64146  22940262.7534   22940268.0554
      2510.1994       1956.0154
 06  6 25 17 47 30.0000000  0  9G 1G18G14G15G22G30G21G 5G25
  24129786.5844   -4998132.12847  -3891919.32246  24129786.3664   24129791.2814
      1046.8514        815.7284
  20989325.5184  -24622233.19048 -19171890.19248  20989324.7254   20989326.6654
      -457.8014       -356.7354
  22163920.5054  -13489274.49848 -10462380.16247  22163919.1214   22163921.4044
       216.8094        168.9504
  20877566.9034  -21697676.91748 -16856936.53747  20877566.7764   20877570.9834
     -2366.8174      -1844.2734
  20997018.1544  -16767368.88248 -13056910.42148  20997018.0364   20997017.9074
      1624.6784       1265.9744
  21951200.3714  -18560056.79948 -14457371.37547  21951200.8734   21951204.3364
      1641.8244       1279.3614
  22345914.2644  -17154270.91947 -13322537.60946  22345913.0074   22345917.6014
     -3320.8384      -2587.6754
  22553180.8774  -14345465.83947 -11175930.55947  22553181.2474   22553184.0534
      -448.1734       -349.2284
  22925969.5424   -5658031.15547  -4397547.80246  22925968.5484   22925972.7894
      2497.7794       1946.3234
 06  6 25 17 48  0.0000000  0  9G 1G18G14G15G22G30G21G 5G25
  24123809.3074   -5029532.04946  -3916386.74646  24123809.4224   24123815.2614
      1045.9394        815.0154
  20991976.4164  -24608301.09748 -19161034.04548  20991975.9214   20991977.7784
      -471.0524       -367.0554
  22162680.3404  -13495789.06248 -10467456.45647  22162680.3054   22162682.7514
       217.3974        169.3984
  20891116.3814  -21626475.75948 -16801455.17047  20891116.1734   20891119.4984
     -2379.9474      -1854.5114
  20987764.0484  -16815998.86048 -13094803.92748  20987764.0134   20987764.4084
      1617.2754       1260.2174
  21941858.2014  -18609144.74048 -14495621.72347  21941859.1564   21941861.9024
      1630.5804       1270.5644
  22364887.3014  -17054567.86047 -13244847.00746  22364886.1404   22364890.6824
     -3325.9884      -2591.6584
  22555786.6004  -14331777.18947 -11165264.09447  22555785.2484   22555788.6254
      -464.5934       -362.0424
  22911738.3894   -5732805.07847  -4455813.12746  22911739.1104   22911745.9444
      2486.7934       1937.7574
 06  6 25 17 48 30.0000000  0  9G 1G18G14G15G22G30G21G 5G25
  24117844.8934   -5060881.89747  -3940815.14746  24117844.3994   24117849.2564
      1044.3154        813.7494
  20994707.7104  -24593950.21448 -19149851.57048  20994707.2164   20994708.6364
      -485.3914       -378.2284
  22161441.4134  -13502301.08548 -10472530.76547  22161440.6054   22161442.8614
       216.9704        169.0784
  20904744.1924  -21554862.31348 -16745652.53047  20904743.4894   20904747.3714
     -2394.0254      -1865.4824
  20978556.1594  -16864388.14648 -13132509.87548  20978555.9084   20978555.9814
      1609.0104       1253.7754
  21932587.4524  -18657869.60448 -14533589.15147  21932588.2454   21932590.5374
      1618.1414       1260.8754
  22383893.1924  -16954693.76247 -13167023.12346  22383892.5514   22383896.3284
     -3331.6454      -2596.0804
  22558487.9724  -14317576.15047 -11154198.35947  22558488.6914   22558491.6614
      -481.9794       -375.5714
  22897577.8944   -5807225.60747  -4513803.07446  22897577.5064   22897582.6114
      2474.6624       1928.3104
 06  6 25 17 49  0.0000000  0  9G 1G18G14G15G22G30G21G 5G25
  24111888.0474   -5092189.51347  -3965210.66546  24111888.1284   24111891.8374
      1042.9284        812.6704
  20997516.8964  -24579186.46448 -19138347.37648  20997516.4844   20997518.4974
      -498.5314       -388.4634
  22160200.5184  -13508818.01948 -10477608.90847  22160200.6434   22160202.8314
       217.6784        169.6194
  20918448.3784  -21482846.28548 -16689536.19447  20918447.6064   20918452.3034
     -2406.8974      -1875.5104
  20969392.3564  -16912540.73448 -13170031.39048  20969393.0274   20969392.7124
      1601.6034       1248.0014
  21923383.4694  -18706235.48348 -14571276.84647  21923384.2724   21923387.5964
      1606.4814       1251.8174
  22402927.8624  -16854658.50247 -13089073.64846  22402927.8134   22402932.6674
     -3336.8274      -2600.1314
  22561287.1674  -14302868.91847 -11142738.18947  22561287.3684   22561290.1264
      -498.4674       -388.4414
  22883481.9794   -5881298.26847  -4571521.96146  22883483.1624   22883487.5024
      2463.7044       1919.7694
 06  6 25 17 49 30.0000000  0  9G 1G18G14G15G22G30G21G 5G25
  24105938.7654   -5123450.51347  -3989569.84946  24105939.0294   24105943.3234
      1041.4684        811.5314
  21000406.2864  -24564002.85148 -19126516.01948  21000405.5724   21000407.2614
      -512.9844       -399.7364
  22158961.0054  -13515335.22448 -10482687.25447  22158961.0374   22158962.9024
       217.2974        169.3164
  20932229.3904  -21410425.20548 -16633104.23347  20932228.7704   20932233.9244
     -2420.7134      -1886.2754
  20960276.6934  -16960448.63148 -13207362.22748  20960276.2454   20960276.4274
      1592.9924       1241.2944
  21914250.2704  -18754234.08848 -14608678.36647  21914250.2024   21914252.7974
      1593.9854       1242.0594
  22421995.8954  -16754459.84447 -13010996.85146  22421995.7524   22421998.3534
     -3342.3074      -2604.4024
  22564183.5114  -14287649.30147 -11130878.76447  22564183.2374   22564187.3594
      -515.7544       -401.9144
  22869454.2164   -5955016.22147  -4628964.45046  22869454.1574   22869458.2444
      2451.3914       1910.1614
 06  6 25 17 50  0.0000000  0  9G 1G18G14G15G22G30G21G 5G25
  24099998.1414   -5154671.37547  -4013897.76146  24099996.0084   24100002.0264
      1040.8724        811.0774
  21003374.9944  -24548403.45048 -19114360.67748  21003375.1994   21003376.2724
      -526.1814       -410.0014
  22157719.9014  -13521858.73048 -10487770.51147  22157719.8324   22157720.9514
       218.0744        169.9334
  20946085.9914  -21337607.04348 -16576362.86947  20946085.7274   20946089.8564
     -2433.1954      -1895.9954
  20951206.0154  -17008114.82948 -13244504.73548  20951205.9084   20951205.7954
      1585.4584       1235.4294
  21905185.5744  -18801867.41948 -14645795.24547  21905185.5864   21905187.9554
      1582.6314       1233.2194
  22441091.9324  -16654106.25847 -12932799.35146  22441091.1834   22441096.2324
     -3346.8344      -2607.9154
  22567176.2194  -14271922.08347 -11118623.80447  22567175.2154   22567179.4214
      -532.0634       -414.5924
  22855493.6424   -6028383.45247  -4686133.67246  22855493.4894   22855497.4784
      2440.4854       1901.6824
 06  6 25 17 50 30.0000000  0  9G 1G18G14G15G22G30G21G 5G25
  24094063.2154   -5185848.92747  -4038191.93646  24094063.0244   24094069.0954
      1039.0324        809.6314
  21006423.1154  -24532382.92048 -19101877.17348  21006422.7954   21006424.8764
      -540.6294       -421.2774
  22156478.1254  -13528384.81248 -10492855.79047  22156477.0244   22156478.9084
       218.1084        169.9554
  20960019.8414  -21264390.49348 -16519311.05847  20960018.5964   20960023.1184
     -2446.8254      -1906.6054
  20942182.0954  -17055532.68948 -13281453.73748  20942182.1824   20942182.3614
      1576.7264       1228.6324
  21896192.2344  -18849128.49248 -14682622.05447  21896193.0774   21896195.6354
      1569.4084       1222.9134
  22460218.3514  -16553596.22147 -12854479.93446  22460218.8344   22460222.3344
     -3352.5524      -2612.3664
  22570267.2044  -14255682.25747 -11105969.40647  22570266.0684   22570269.0464
      -549.7074       -428.3274
  22841598.9294   -6101394.36647  -4743025.24846  22841600.0584   22841604.6834
      2427.9554       1891.9274
 06  6 25 17 51  0.0000000  0  9G 1G18G14G15G22G30G21G 5G25
  24088138.4834   -5216986.34047  -4062454.81246  24088139.2164   24088144.4504
      1037.5004        808.4344
  21009551.3544  -24515942.29448 -19089066.32548  21009551.2104   21009553.8764
      -554.7264       -432.2544
  22155234.5444  -13534916.30448 -10497945.27547  22155234.5064   22155235.9864
       218.0684        169.9174
  20974026.7824  -21190780.67648 -16461952.81647  20974025.6024   20974031.0764
     -2460.0494      -1916.9164
  20933206.1984  -17102701.58348 -13318208.73448  20933206.5064   20933206.3244
      1568.5074       1222.2174
  21887269.7464  -18896017.00748 -14719158.56347  21887270.0624   21887272.7714
      1557.0414       1213.2774
  22479374.6104  -16452934.66947 -12776042.44546  22479372.9954   22479377.5794
     -3357.3794      -2616.1404
  22573453.5944  -14238931.49847 -11092916.88847  22573454.1364   22573457.2624
      -566.7034       -441.5844
  22827772.8944   -6174049.92547  -4799639.89146  22827772.3564   22827779.5924
      2416.1954       1882.7414
 06  6 25 17 51 30.0000000  0  9G 1G18G14G15G22G30G21G 5G25
  24082221.8204   -5248083.45747  -4086686.29146  24082221.4834   24082227.2294
      1036.0734        807.3344
  21012760.3934  -24499078.70148 -19075925.89048  21012760.6244   21012762.2214
      -568.8214       -443.2284
  22153991.2504  -13541452.79648 -10503038.66047  22153991.4264   22153992.6034
       218.1804        170.0104
  20988108.1394  -21116779.28548 -16404289.44847  20988107.2734   20988112.2224
     -2472.9324      -1926.9474
  20924278.6284  -17149617.91048 -13354766.92548  20924278.7404   20924278.5614
      1559.8914       1215.5064
  21878418.7334  -18942528.10148 -14755400.97147  21878419.2114   21878421.8774
      1544.3294       1203.3784
  22498557.1844  -16352123.89247 -12697488.67646  22498557.4954   22498560.6384
     -3362.6004      -2620.1844
  22576739.9674  -14221668.08147 -11079464.89347  22576739.8694   22576741.5524
      -583.7174       -454.8334
  22814015.4704   -6246347.44747  -4855975.54946  22814015.3664   22814021.2394
      2403.8884       1873.1624
 06  6 25 17 52  0.0000000  0  9G 1G18G14G15G22G30G21G 5G25
  24076309.1494   -5279145.80447  -4110890.68046  24076309.8384   24076316.4164
      1034.4714        806.0774
  21016049.4424  -24481795.37248 -19062458.38148  21016049.2214   21016051.4704
      -583.4384       -454.6344
  22152745.1024  -13547999.18748 -10508139.75447  22152744.7674   22152747.1674
       218.1174        169.9484
  21002263.9634  -21042393.50648 -16346326.56147  21002263.2674   21002267.7634
     -2486.1094      -1937.2194
  20915398.6114  -17196283.62648 -13391129.83948  20915398.2314   20915398.5654
      1551.0094       1208.5724
  21869639.2174  -18988663.93648 -14791350.97947  21869639.7474   21869642.9494
      1531.3184       1193.2304
  22517767.9994  -16251171.09247 -12618824.25046  22517768.5594   22517772.3104
     -3367.5514      -2624.0804
  22580121.6714  -14203895.90647 -11065616.44247  22580120.6794   22580123.8214
      -601.3214       -468.5374
  22800325.3334   -6318290.24547  -4912034.81346  22800325.4634   22800329.1284
      2392.1594       1864.0134
 06  6 25 17 52 30.0000000  0  9G 1G18G14G15G22G30G21G 5G25
  24070406.5684   -5310168.35647  -4135064.05346  24070407.6814   24070411.9064
      1032.8604        804.8264
  21019419.7074  -24464085.33948 -19048658.38248  21019419.3474   21019421.4674
      -598.2564       -466.1754
  22151498.0984  -13554550.17748 -10513244.42447  22151498.2554   22151500.2254
       217.8694        169.7724
  21016493.1934  -20967620.25148 -16288061.74047  21016491.8434   21016496.7524
     -2499.7004      -1947.8034
  20906567.3204  -17242690.12648 -13427290.76448  20906567.7844   20906567.6844
      1541.7544       1201.3684
  21860933.6004  -19034415.37248 -14827001.44147  21860933.9264   21860936.6554
      1517.8704       1182.7394
  22537007.3134  -16150073.06247 -12540046.65146  22537007.2854   22537009.7404
     -3373.2264      -2628.4794
  22583601.7844  -14185608.34647 -11051366.41047  22583601.2514   22583604.3944
      -618.9424       -482.3004
  22786703.8844   -6389870.81847  -4967811.83646  22786704.0324   22786706.5064
      2379.0874       1853.8294
 06  6 25 17 53  0.0000000  0  9G 1G18G14G15G22G30G21G 5G25
  24064509.4074   -5341157.57747  -4159211.47046  24064509.6214   24064514.5464
      1032.7024        804.7094
  21022870.5814  -24445952.90748 -19034529.23347  21022869.8954   21022871.9664
      -611.5444       -476.5174
  22150249.8984  -13561111.88948 -10518357.45747  22150249.5614   22150251.6684
       218.9134        170.5764
  21030794.2194  -20892467.83448 -16229501.46747  21030792.9044   21030798.0044
     -2511.4614      -1956.9744
  20897785.3174  -17288840.35348 -13463251.99648  20897785.3444   20897785.7534
      1533.8574       1195.2184
  21852300.0314  -19079784.93648 -14862354.34147  21852300.0404   21852302.5164
      1505.9894       1173.4864
  22556270.9974  -16048838.46847 -12461162.63146  22556269.2054   22556274.8974
     -3376.5824      -2631.0934
  22587178.5784  -14166810.24547 -11036718.55147  22587177.5954   22587181.3034
      -635.1454       -494.8924
  22773150.1644   -6461093.27647  -5023309.79846  22773150.4064   22773155.7694
      2367.7474       1845.0054
 06  6 25 17 53 30.0000000  0  9G 1G18G14G15G22G30G21G 5G25
  24058618.2064   -5372111.64047  -4183331.48146  24058617.5134   24058624.2394
      1031.4784        803.7584
  21026402.1224  -24427393.74848 -19020067.57147  21026401.4864   21026404.0024
      -625.7844       -487.6254
  22149000.2024  -13567681.99448 -10523477.03347  22148999.2214   22149001.2384
       219.0184        170.6594
  21045166.7714  -20816936.28148 -16170645.77047  21045167.2084   21045170.8834
     -2524.1084      -1966.8304
  20889053.2984  -17334728.66548 -13499009.14348  20889053.1924   20889053.6184
      1525.1434       1188.4344
  21843740.3184  -19124766.95348 -14897405.25747  21843740.7434   21843742.8444
      1492.9054       1163.3164
  22575562.7864  -15947466.92847 -12382171.89246  22575561.8924   22575565.5604
     -3381.3404      -2634.8214
  22590853.7514  -14147498.27147 -11021670.27547  22590852.5124   22590856.8864
      -652.5044       -508.4484
  22759666.4604   -6531953.64947  -5078525.61246  22759666.5844   22759672.4844
      2355.9414       1835.8114
 06  6 25 17 54  0.0000000  0  9G 1G18G14G15G22G30G21G 5G25
  24052735.8144   -5403032.45447  -4207425.57746  24052733.6364   24052740.0644
      1029.3324        802.0704
  21030014.6904  -24408407.41948 -19005273.05047  21030014.8724   21030016.5564
      -640.9134       -499.4114
  22147747.5444  -13574262.19948 -10528604.47447  22147747.6934   22147749.4944
       218.6754        170.3724
  21059611.5464  -20741029.38748 -16111497.59647  21059611.0734   21059615.8534
     -2537.2634      -1977.0854
  20880370.8134  -17380353.58648 -13534561.03948  20880371.3734   20880371.1824
      1515.5584       1180.9574
  21835254.4084  -19169359.32148 -14932152.55047  21835253.8934   21835257.1304
      1478.8804       1152.3744
  22594878.8084  -15845962.24247 -12303077.41346  22594877.7894   22594880.7774
     -3386.6314      -2638.9704
  22594627.2264  -14127672.85447 -11006221.91047  22594626.2834   22594628.3234
      -670.2294       -522.2544
  22746251.6514   -6602451.58747  -5133459.00946  22746250.7724   22746255.3804
      2343.1064       1825.8104
 06  6 25 17 54 30.0000000  0  9G 1G18G14G15G22G30G21G 5G25
  24046856.9874   -5433923.33147  -4231496.35146  24046856.5844   24046861.2784
      1028.6634        801.5544
  21033708.4654  -24388995.44148 -18990146.86047  21033709.0044   21033710.7714
      -654.6074       -510.0874
  22146493.0554  -13580854.83448 -10533741.60447  22146493.3014   22146495.0564
       219.6374        171.1394
  21074126.6144  -20664752.51448 -16052061.12547  21074125.8214   21074130.9144
     -2549.0894      -1986.3114
  20871739.6454  -17425715.26748 -13569907.82148  20871738.6004   20871738.8314
      1507.2374       1174.4564
  21826842.5774  -19213561.61648 -14966595.89247  21826843.1194   21826845.9894
      1466.4694       1142.6954
  22614218.3654  -15744330.16347 -12223883.67646  22614217.7374   22614222.0544
     -3390.1984      -2641.7224
  22598496.4274  -14107335.93947 -10990374.98747  22598495.6194   22598499.0534
      -687.0594       -535.3934
  22732904.0964   -6672588.09547  -5188110.77446  22732903.2024   22732908.5404
      2332.1294       1817.2464
 06  6 25 17 55  0.0000000  0  9G 1G18G14G15G22G30G21G 5G25
  24040983.9604   -5464782.89647  -4255542.72046  24040984.1064   24040989.9684
      1027.6684        800.7854
  21037484.4714  -24369154.08348 -18974686.07847  21037484.1904   21037486.2114
      -669.0514       -521.3374
  22145235.8654  -13587458.29948 -10538887.16347  22145236.2894   22145239.1854
       219.9584        171.3994
  21088712.1734  -20588106.00048 -15992336.63147  21088711.8694   21088716.1184
     -2561.5394      -1995.9904
  20863158.2454  -17470808.18648 -13605045.18148  20863158.3544   20863158.3934
      1498.0984       1167.3474
  21818506.4544  -19257368.53248 -15000731.15147  21818507.1694   21818509.3854
      1453.3424       1132.4594
  22633582.0094  -15642571.02347 -12144590.92746  22633581.8084   22633584.6854
     -3394.5414      -2645.1124
  22602464.3314  -14086484.60647 -10974127.21747  22602464.5984   22602467.7234
      -703.8564       -548.4574
  22719626.4744   -6742359.51447  -5242478.05946  22719626.7984   22719630.4324
      2319.1214       1807.0924
 06  6 25 17 55 30.0000000  0  9G 1G18G14G15G22G30G21G 5G25
  24035118.9864   -5495612.22447  -4279565.53946  24035117.7914   24035122.5754
      1027.1994        800.4044
  21041342.0284  -24348882.34348 -18958889.94247  21041342.0754   21041344.1224
      -682.9004       -532.1184
  22143977.9614  -13594073.44248 -10544041.83347  22143977.5764   22143979.3954
       220.6404        171.9454
  21103367.1164  -20511092.86448 -15932326.45147  21103366.9634   21103371.2464
     -2573.1384      -2005.0494
  20854629.1934  -17515630.01948 -13639971.30548  20854628.9014   20854629.0734
      1489.4964       1160.6484
  21810246.2434  -19300777.49048 -15034556.30547  21810245.9874   21810250.2704
      1440.1824       1122.2284
  22652970.0114  -15540687.82947 -12065201.49346  22652969.6174   22652972.8114
     -3398.2114      -2647.9504
  22606528.7534  -14065118.59847 -10957478.38647  22606528.1804   22606533.7104
      -720.6704       -561.5624
  22706419.6534   -6811764.60047  -5296559.90746  22706419.6614   22706424.7504
      2306.9174       1797.5994
 06  6 25 17 56  0.0000000  0  9G 1G18G14G15G22G30G21G 5G25
  24029257.4834   -5526412.76847  -4303565.92846  24029255.7844   24029261.4284
      1025.7204        799.2704
  21045282.3244  -24328179.65148 -18942757.99147  21045281.4794   21045283.7254
      -697.4224       -543.4504
  22142716.4344  -13600700.83448 -10549206.04147  22142714.9404   22142718.1224
       220.8664        172.0984
  21118091.9894  -20433716.35648 -15872033.12847  21118091.1484   21118095.6584
     -2585.4714      -2014.6454
  20846151.6234  -17560178.80048 -13674684.65548  20846151.6834   20846151.6624
      1480.2174       1153.4084
  21802062.0044  -19343786.03348 -15068069.44947  21802062.0174   21802065.0294
      1426.7204       1111.7114
  22672380.6494  -15438683.94147 -11985718.02846  22672380.7764   22672384.0884
     -3402.2444      -2651.1104
  22610693.4354  -14043237.87747 -10940428.49547  22610693.6874   22610696.4494
      -738.1214       -575.1714
  22693282.7194   -6880802.77847  -5350355.82246  22693283.9394   22693286.9844
      2294.8544       1788.1834
 06  6 25 17 56 30.0000000  0  9G 1G18G14G15G22G30G21G 5G25
  24023401.2964   -5557188.96747  -4327547.36046  24023399.9644   24023404.2064
      1025.7874        799.3154
  21049303.0984  -24307048.18348 -18926291.93147  21049303.1964   21049305.0914
      -711.0684       -554.0894
  22141452.5664  -13607344.72648 -10554383.10747  22141451.2674   22141453.3384
       222.1184        173.0674
  21132883.5054  -20355983.02748 -15811461.76147  21132882.8144   21132887.7124
     -2596.4784      -2023.2164
  20837726.5054  -17604455.47848 -13709185.98248  20837726.1644   20837726.1614
      1471.6794       1146.7594
  21793953.8144  -19386394.49648 -15101270.84047  21793954.2204   21793957.0484
      1413.9524       1101.7744
  22691813.5264  -15336565.27547 -11906145.12846  22691810.9364   22691817.7454
     -3405.3344      -2653.5004
  22614954.9414  -14020845.47347 -10922979.88847  22614954.1524   22614958.0344
      -754.6494       -588.0244
  22680212.9064   -6949476.04847  -5403867.40646  22680214.5384   22680220.2824
      2283.2414       1779.1534
 06  6 25 17 57  0.0000000  0  9G 1G18G14G15G22G30G21G 5G25
  24017548.8894   -5587939.19047  -4351508.52346  24017547.4224   24017552.5184
      1023.5474        797.5704
  21053406.6104  -24285484.02848 -18909488.71747  21053406.3694   21053408.3624
      -727.0164       -566.4924
  22140185.0614  -13614002.86448 -10559571.27147  22140184.4054   22140187.6804
       221.3264        172.4594
  21147744.0004  -20277892.92748 -15750612.39547  21147743.4884   21147747.5444
     -2609.9744      -2033.7444
  20829353.2654  -17648454.63148 -13743471.05248  20829353.6164   20829353.4374
      1460.8414       1138.3234
  21785922.7884  -19428597.46648 -15134156.26247  21785922.6154   21785925.7034
      1398.8874       1090.0414
  22711268.4274  -15234332.33747 -11826483.18246  22711265.8024   22711271.3564
     -3410.8064      -2657.7734
  22619314.4114  -13997938.41647 -10905130.25047  22619314.2224   22619316.0894
      -773.4514       -602.6814
  22667216.0444   -7017780.37347  -5457091.50346  22667215.9534   22667220.0574
      2269.0724       1768.1034
 06  6 25 17 57 30.0000000  0  9G 1G18G14G15G22G30G21G 5G25
  24011703.2814   -5618664.78547  -4375450.50146  24011700.4864   24011705.4634
      1023.2564        797.3434
  21057592.9874  -24263486.75148 -18892348.00647  21057592.2954   21057594.2584
      -741.0354       -577.4374
  22138915.3524  -13620676.31948 -10564771.36847  22138915.0274   22138917.4364
       222.1174        173.0444
  21162671.2284  -20199449.62848 -15689487.80847  21162670.2344   21162675.0654
     -2621.3304      -2042.5954
  20821033.9974  -17692174.12248 -13777538.21248  20821033.9464   20821033.9314
      1452.0964       1131.4964
  21777970.0274  -19470392.52948 -15166723.84147  21777969.7764   21777972.3784
      1385.9614       1079.9594
  22730743.4594  -15131988.64447 -11746734.90846  22730742.6574   22730746.6194
     -3413.7484      -2660.0544
  22623770.7274  -13974516.88547 -10886879.72847  22623769.2084   22623774.1974
      -789.8364       -615.4594
  22654289.2744   -7085715.48147  -5510027.90346  22654288.5764   22654293.1754
      2257.6854       1759.2404
 06  6 25 17 58  0.0000000  0  9G 1G18G14G15G22G30G21G 5G25
  24005859.4814   -5649369.16347  -4399375.94746  24005858.0634   24005864.6854
      1022.8474        797.0204
  21061860.7384  -24241057.80448 -18874870.92847  21061860.2994   21061862.1724
      -754.9034       -588.2434
  22137642.0674  -13627367.89348 -10569985.59047  22137641.9864   22137643.7534
       222.9864        173.7494
  21177665.0184  -20120658.45848 -15628092.15747  21177664.6334   21177668.4964
     -2632.2774      -2051.1354
  20812767.5504  -17735613.97148 -13811387.45948  20812767.3824   20812767.7034
      1443.1794       1124.5554
  21770093.9824  -19511779.60948 -15198973.50047  21770093.4154   21770097.3954
      1372.5264       1069.5064
  22750238.3494  -15029539.26547 -11666904.33246  22750236.7964   22750243.1984
     -3416.7024      -2662.3654
  22628324.4564  -13950582.90247 -10868229.88947  22628324.8364   22628327.8114
      -806.4584       -628.4314
  22641430.2854   -7153282.45247  -5562677.43146  22641430.1974   22641435.9104
      2245.5594       1749.7824
 06  6 25 17 58 30.0000000  0  9G 1G18G14G15G22G30G21G 5G25
  24000021.0554   -5680046.96247  -4423280.67546  24000021.3054   24000026.8934
      1021.7364        796.1654
  21066212.7634  -24218189.77648 -18857051.71247  21066211.8234   21066214.1474
      -770.0594       -600.0394
  22136366.5974  -13634071.79048 -10575209.40747  22136365.6644   22136368.6554
       223.0544        173.8044
  21192725.2294  -20041516.13748 -15566422.87847  21192724.8294   21192729.4754
     -2644.4814      -2060.6234
  20804556.5274  -17778765.28148 -13845011.86948  20804556.2354   20804556.2584
      1433.2084       1116.7914
  21762297.2294  -19552749.67648 -15230898.22547  21762297.9404   21762300.0724
      1358.3394       1058.4614
  22769754.4784  -14926980.93147 -11586988.82646  22769755.1504   22769757.5654
     -3420.8384      -2665.5914
  22632978.5374  -13926129.97547 -10849175.68847  22632979.0364   22632982.8514
      -824.3874       -642.3764
  22628644.3854   -7220473.90647  -5615034.36346  22628644.1194   22628650.3074
      2233.1624       1740.1434
 06  6 25 17 59  0.0000000  0  9G 1G18G14G15G22G30G21G 5G25
  23994186.6944   -5710706.86247  -4447171.46246  23994187.3004   23994191.0494
      1021.3604        795.8624
  21070646.4584  -24194889.07748 -18838895.35547  21070645.9704   21070648.4434
      -784.1754       -611.0374
  22135086.6704  -13640796.10248 -10580449.14247  22135086.5274   22135088.4064
       224.1544        174.7084
  21207849.7884  -19962033.19448 -15504488.17747  21207849.7324   21207853.6094
     -2655.2584      -2069.0154
  20796398.7534  -17821633.06848 -13878415.35348  20796398.5944   20796398.8884
      1423.9884       1109.6094
  21754579.2904  -19593307.65448 -15262501.83647  21754579.3454   21754582.5564
      1344.8094       1047.9044
  22789290.3924  -14824324.12847 -11506996.62346  22789289.6004   22789292.9744
     -3423.5884      -2667.7254
  22637728.6374  -13901165.38847 -10829722.78047  22637727.8064   22637731.8414
      -841.0364       -655.3384
  22615928.7854   -7287296.13647  -5667103.58047  22615927.6314   22615933.7244
      2220.7244       1730.4224
